Index of /latest/symbols

[ICO]NameLast modifiedSizeDescription

[DIR]Parent Directory  -  
[   ]geometry_experimental.tag27-Apr-2018 11:46 78  
[   ]dataspeed_can_msgs.tag08-Sep-2018 10:18 658  
[   ]py_trees_msgs.tag23-Jan-2019 11:49 78  
[   ]turtlebot3_applications_msgs.tag24-Jan-2019 12:00 78  
[   ]turtlebot3_fake.tag25-Jan-2019 11:13 13K 
[   ]turtlebot3_gazebo.tag25-Jan-2019 11:13 8.3K 
[   ]turtlebot3_simulations.tag25-Jan-2019 11:13 78  
[   ]zeroconf_msgs.tag25-Jan-2019 11:26 78  
[   ]teleop_twist_joy.tag26-Jan-2019 11:19 9.1K 
[   ]fanuc_post_processor_example.tag02-Feb-2019 11:52 6.1K 
[   ]behaviortree_cpp.tag03-Feb-2019 11:13 841K 
[   ]yocs_ar_marker_tracking.tag03-Feb-2019 11:41 31K 
[   ]yocs_ar_pair_approach.tag03-Feb-2019 11:41 21K 
[   ]yocs_ar_pair_tracking.tag03-Feb-2019 11:41 22K 
[   ]yocs_cmd_vel_mux.tag03-Feb-2019 11:41 19K 
[   ]yocs_controllers.tag03-Feb-2019 11:41 2.6K 
[   ]yocs_diff_drive_pose_controller.tag03-Feb-2019 11:41 23K 
[   ]yocs_joyop.tag03-Feb-2019 11:41 15K 
[   ]yocs_keyop.tag03-Feb-2019 11:41 11K 
[   ]yocs_localization_manager.tag03-Feb-2019 11:41 17K 
[   ]yocs_math_toolkit.tag03-Feb-2019 11:41 52K 
[   ]yocs_navi_toolkit.tag03-Feb-2019 11:41 12K 
[   ]yocs_navigator.tag03-Feb-2019 11:41 33K 
[   ]yocs_rapps.tag03-Feb-2019 11:41 78  
[   ]yocs_safety_controller.tag03-Feb-2019 11:41 11K 
[   ]yocs_velocity_smoother.tag03-Feb-2019 11:41 22K 
[   ]yocs_virtual_sensor.tag03-Feb-2019 11:41 21K 
[   ]yocs_waypoint_provider.tag03-Feb-2019 11:41 13K 
[   ]yocs_waypoints_navi.tag03-Feb-2019 11:41 14K 
[   ]yujin_ocs.tag03-Feb-2019 11:41 78  
[   ]bfl.tag11-Feb-2019 11:54 676K 
[   ]open_manipulator_msgs.tag12-Feb-2019 11:24 78  
[   ]robotis_manipulator.tag12-Feb-2019 11:38 159K 
[   ]open_manipulator_gazebo.tag12-Feb-2019 11:44 1.1K 
[   ]open_manipulator_simulations.tag12-Feb-2019 11:44 78  
[   ]turtlebot3_autorace.tag13-Feb-2019 11:13 78  
[   ]turtlebot3_autorace_camera.tag13-Feb-2019 11:13 1.3K 
[   ]turtlebot3_autorace_control.tag13-Feb-2019 11:13 1.3K 
[   ]turtlebot3_autorace_core.tag13-Feb-2019 11:13 1.2K 
[   ]turtlebot3_autorace_detect.tag13-Feb-2019 11:13 1.3K 
[   ]open_manipulator_with_tb3_gazebo.tag13-Feb-2019 11:16 78  
[   ]open_manipulator_with_tb3_simulations.tag13-Feb-2019 11:16 78  
[   ]turtlebot3_applications.tag14-Feb-2019 11:15 78  
[   ]turtlebot3_automatic_parking.tag14-Feb-2019 11:15 1.3K 
[   ]turtlebot3_automatic_parking_vision.tag14-Feb-2019 11:15 1.3K 
[   ]turtlebot3_follow_filter.tag14-Feb-2019 11:15 78  
[   ]turtlebot3_follower.tag14-Feb-2019 11:15 474  
[   ]turtlebot3_panorama.tag14-Feb-2019 11:15 17K 
[   ]open_manipulator_with_tb3.tag15-Feb-2019 11:34 78  
[   ]open_manipulator_with_tb3_description.tag15-Feb-2019 11:34 78  
[   ]open_manipulator_with_tb3_tools.tag15-Feb-2019 11:34 14K 
[   ]open_manipulator_with_tb3_waffle_moveit.tag15-Feb-2019 11:34 22K 
[   ]open_manipulator_with_tb3_waffle_pi_moveit.tag15-Feb-2019 11:34 22K 
[   ]nodelet.tag17-Feb-2019 11:38 75K 
[   ]nodelet_core.tag17-Feb-2019 11:38 78  
[   ]nodelet_topic_tools.tag17-Feb-2019 11:38 23K 
[   ]test_nodelet.tag17-Feb-2019 11:38 29K 
[   ]test_nodelet_topic_tools.tag17-Feb-2019 11:38 13K 
[   ]open_manipulator.tag22-Feb-2019 11:21 78  
[   ]open_manipulator_control_gui.tag22-Feb-2019 11:21 25K 
[   ]open_manipulator_controller.tag22-Feb-2019 11:21 29K 
[   ]open_manipulator_description.tag22-Feb-2019 11:21 78  
[   ]open_manipulator_libs.tag22-Feb-2019 11:21 62K 
[   ]open_manipulator_moveit.tag22-Feb-2019 11:21 22K 
[   ]open_manipulator_teleop.tag22-Feb-2019 11:21 16K 
[   ]brics_actuator.tag05-Mar-2019 11:55 78  
[   ]calibration.tag11-Mar-2019 10:27 78  
[   ]calibration_estimation.tag11-Mar-2019 10:27 184K 
[   ]calibration_launch.tag11-Mar-2019 10:27 59K 
[   ]calibration_msgs.tag11-Mar-2019 10:27 78  
[   ]calibration_setup_helper.tag11-Mar-2019 10:27 18K 
[   ]image_cb_detector.tag11-Mar-2019 10:27 24K 
[   ]interval_intersection.tag11-Mar-2019 10:27 15K 
[   ]joint_states_settler.tag11-Mar-2019 10:27 20K 
[   ]laser_cb_detector.tag11-Mar-2019 10:27 24K 
[   ]monocam_settler.tag11-Mar-2019 10:27 13K 
[   ]settlerlib.tag11-Mar-2019 10:27 19K 
[   ]dynamic_robot_state_publisher.tag18-Mar-2019 10:12 8.1K 
[   ]static_transform_mux.tag19-Mar-2019 16:55 78  
[   ]movie_publisher.tag19-Mar-2019 16:58 3.1K 
[   ]rosbash_params.tag19-Mar-2019 17:01 78  
[   ]cmake_modules.tag21-Mar-2019 10:15 78  
[   ]md49_base_controller.tag24-Mar-2019 10:08 15K 
[   ]md49_messages.tag24-Mar-2019 10:08 78  
[   ]md49_serialport.tag24-Mar-2019 10:08 11K 
[   ]rslidar.tag26-Mar-2019 10:53 78  
[   ]rslidar_driver.tag26-Mar-2019 10:53 21K 
[   ]rslidar_msgs.tag26-Mar-2019 10:53 78  
[   ]rslidar_pointcloud.tag26-Mar-2019 10:53 38K 
[   ]diagnostic_aggregator.tag27-Mar-2019 10:35 1.6M 
[   ]diagnostic_analysis.tag27-Mar-2019 10:35 25K 
[   ]diagnostic_common_diagnostics.tag27-Mar-2019 10:35 55K 
[   ]diagnostic_updater.tag27-Mar-2019 10:35 100K 
[   ]diagnostics.tag27-Mar-2019 10:35 78  
[   ]rosdiagnostic.tag27-Mar-2019 10:35 7.9K 
[   ]self_test.tag27-Mar-2019 10:35 1.5M 
[   ]test_diagnostic_aggregator.tag27-Mar-2019 10:35 24K 
[   ]nav2d.tag01-Apr-2019 17:49 78  
[   ]nav2d_exploration.tag01-Apr-2019 17:49 12K 
[   ]nav2d_karto.tag01-Apr-2019 17:49 1.0M 
[   ]nav2d_localizer.tag01-Apr-2019 17:49 69K 
[   ]nav2d_msgs.tag01-Apr-2019 17:49 78  
[   ]nav2d_navigator.tag01-Apr-2019 17:49 47K 
[   ]nav2d_operator.tag01-Apr-2019 17:49 13K 
[   ]nav2d_remote.tag01-Apr-2019 17:49 8.4K 
[   ]nav2d_tutorials.tag01-Apr-2019 17:49 78  
[   ]acado.tag02-Apr-2019 10:29 13M 
[   ]ouster_driver.tag03-Apr-2019 10:42 66K 
[   ]interactive_marker_proxy.tag03-Apr-2019 10:44 6.0K 
[   ]depthcloud_encoder.tag04-Apr-2019 10:50 14K 
[   ]allocators.tag05-Apr-2019 10:34 9.6K 
[   ]lockfree.tag05-Apr-2019 10:34 30K 
[   ]ros_realtime.tag05-Apr-2019 10:34 78  
[   ]rosatomic.tag05-Apr-2019 10:34 358K 
[   ]rosrt.tag05-Apr-2019 10:34 73K 
[   ]xpp.tag07-Apr-2019 10:14 78  
[   ]xpp_examples.tag07-Apr-2019 10:14 938  
[   ]xpp_hyq.tag07-Apr-2019 10:14 16K 
[   ]xpp_msgs.tag07-Apr-2019 10:14 4.0K 
[   ]xpp_quadrotor.tag07-Apr-2019 10:14 1.1K 
[   ]xpp_states.tag07-Apr-2019 10:14 73K 
[   ]xpp_vis.tag07-Apr-2019 10:14 27K 
[   ]vapor_master.tag07-Apr-2019 10:59 86K 
[   ]codec_image_transport.tag09-Apr-2019 10:23 5.8K 
[   ]driver_base.tag10-Apr-2019 10:17 25K 
[   ]driver_common.tag10-Apr-2019 10:17 78  
[   ]timestamp_tools.tag10-Apr-2019 10:17 28K 
[   ]concert_msgs.tag11-Apr-2019 10:15 78  
[   ]concert_service_msgs.tag11-Apr-2019 10:15 78  
[   ]concert_workflow_engine_msgs.tag11-Apr-2019 10:15 78  
[   ]gateway_msgs.tag11-Apr-2019 10:15 78  
[   ]rocon_app_manager_msgs.tag11-Apr-2019 10:15 78  
[   ]rocon_device_msgs.tag11-Apr-2019 10:15 78  
[   ]rocon_interaction_msgs.tag11-Apr-2019 10:15 78  
[   ]rocon_msgs.tag11-Apr-2019 10:15 78  
[   ]rocon_service_pair_msgs.tag11-Apr-2019 10:15 3.0K 
[   ]rocon_std_msgs.tag11-Apr-2019 10:15 78  
[   ]rocon_tutorial_msgs.tag11-Apr-2019 10:15 78  
[   ]scheduler_msgs.tag11-Apr-2019 10:15 78  
[   ]rtctree.tag11-Apr-2019 10:56 157K 
[   ]wifi_ddwrt.tag12-Apr-2019 10:30 14K 
[   ]rocon_tools.tag17-Apr-2019 11:06 78  
[   ]libsick_ldmrs.tag20-Apr-2019 10:11 779K 
[   ]epos2_motor_controller.tag26-Apr-2019 10:25 102K 
[   ]lauv_control.tag27-Apr-2019 10:49 78  
[   ]lauv_description.tag27-Apr-2019 10:49 1.9K 
[   ]lauv_gazebo.tag27-Apr-2019 10:49 78  
[   ]desistek_saga_control.tag28-Apr-2019 10:13 78  
[   ]desistek_saga_description.tag28-Apr-2019 10:13 1.9K 
[   ]desistek_saga_gazebo.tag28-Apr-2019 10:13 78  
[   ]prosilica_camera.tag28-Apr-2019 10:18 66K 
[   ]photo.tag01-May-2019 10:17 30K 
[   ]pr2_controller_configuration_gazebo.tag01-May-2019 11:00 78  
[   ]pr2_gazebo.tag01-May-2019 11:00 113K 
[   ]pr2_gazebo_plugins.tag01-May-2019 11:00 20K 
[   ]pr2_simulator.tag01-May-2019 11:00 78  
[   ]prosilica_gige_sdk.tag02-May-2019 10:57 54K 
[   ]wge100_camera.tag03-May-2019 10:22 171K 
[   ]wge100_driver.tag03-May-2019 10:22 78  
[   ]jointstick.tag11-May-2019 10:48 33K 
[   ]rdl.tag16-May-2019 11:02 78  
[   ]rdl_benchmark.tag16-May-2019 11:02 20K 
[   ]rdl_cmake.tag16-May-2019 11:02 78  
[   ]rdl_dynamics.tag16-May-2019 11:02 789K 
[   ]rdl_msgs.tag16-May-2019 11:02 78  
[   ]rdl_ros_tools.tag16-May-2019 11:02 17K 
[   ]rdl_urdfreader.tag16-May-2019 11:02 17K 
[   ]rosthrottle.tag19-May-2019 10:49 21K 
[   ]ibeo_core.tag19-May-2019 10:53 188K 
[   ]std_capabilities.tag07-Jun-2019 01:41 78  
[   ]odva_ethernetip.tag07-Jun-2019 01:46 159K 
[   ]robot_activity.tag07-Jun-2019 01:47 77K 
[   ]robot_activity_msgs.tag07-Jun-2019 01:47 78  
[   ]robot_activity_tutorials.tag07-Jun-2019 01:47 11K 
[   ]rosauth.tag07-Jun-2019 01:52 3.5K 
[   ]unique_id.tag07-Jun-2019 02:00 21K 
[   ]unique_identifier.tag07-Jun-2019 02:00 78  
[   ]uuid_msgs.tag07-Jun-2019 02:00 357  
[   ]willow_maps.tag07-Jun-2019 02:02 944  
[   ]find_object_2d.tag07-Jun-2019 02:07 550K 
[   ]flexbe_app.tag07-Jun-2019 02:18 78  
[   ]pheeno_ros_description.tag07-Jun-2019 02:24 78  
[   ]marker_rviz_plugin.tag07-Jun-2019 02:24 55K 
[   ]imagezero.tag07-Jun-2019 02:25 62K 
[   ]imagezero_image_transport.tag07-Jun-2019 02:25 6.8K 
[   ]imagezero_ros.tag07-Jun-2019 02:25 3.9K 
[   ]pacmod3.tag07-Jun-2019 02:27 150K 
[   ]r12_hardware_interface.tag07-Jun-2019 02:36 21K 
[   ]ecl_config.tag07-Jun-2019 02:39 13K 
[   ]ecl_console.tag07-Jun-2019 02:39 670  
[   ]ecl_converters_lite.tag07-Jun-2019 02:39 4.5K 
[   ]ecl_errors.tag07-Jun-2019 02:39 38K 
[   ]ecl_io.tag07-Jun-2019 02:39 14K 
[   ]ecl_lite.tag07-Jun-2019 02:39 78  
[   ]ecl_sigslots_lite.tag07-Jun-2019 02:39 41K 
[   ]ecl_time_lite.tag07-Jun-2019 02:39 9.4K 
[   ]robot_self_filter.tag07-Jun-2019 02:41 134K 
[   ]stage.tag07-Jun-2019 02:42 663K 
[   ]qb_hand.tag07-Jun-2019 02:44 78  
[   ]qb_hand_control.tag07-Jun-2019 02:44 78  
[   ]qb_hand_description.tag07-Jun-2019 02:44 78  
[   ]qb_hand_hardware_interface.tag07-Jun-2019 02:44 10K 
[   ]hector_gazebo.tag07-Jun-2019 02:45 78  
[   ]hector_gazebo_plugins.tag07-Jun-2019 02:45 128K 
[   ]hector_gazebo_thermal_camera.tag07-Jun-2019 02:45 5.9K 
[   ]hector_gazebo_worlds.tag07-Jun-2019 02:45 78  
[   ]hector_sensors_gazebo.tag07-Jun-2019 02:45 78  
[   ]dynamixel_workbench_msgs.tag07-Jun-2019 02:47 78  
[   ]openrtm_aist_python.tag07-Jun-2019 02:57 2.1M 
[   ]cartesian_msgs.tag07-Jun-2019 03:01 78  
[   ]twist_mux_msgs.tag07-Jun-2019 03:07 78  
[   ]stage_ros.tag07-Jun-2019 03:09 16K 
[   ]laser_filtering.tag07-Jun-2019 03:10 78  
[   ]map_laser.tag07-Jun-2019 03:10 3.6K 
[   ]vision_msgs.tag07-Jun-2019 03:10 2.7K 
[   ]automotive_autonomy_msgs.tag07-Jun-2019 03:11 78  
[   ]automotive_navigation_msgs.tag07-Jun-2019 03:11 78  
[   ]automotive_platform_msgs.tag07-Jun-2019 03:11 78  
[   ]ecl_mobile_robot.tag07-Jun-2019 03:14 5.3K 
[   ]ecl_navigation.tag07-Jun-2019 03:14 78  
[   ]rgbd_launch.tag07-Jun-2019 03:16 1.0K 
[   ]mrpt_generic_sensor.tag07-Jun-2019 03:17 553  
[   ]mrpt_sensorlib.tag07-Jun-2019 03:17 5.0K 
[   ]mrpt_sensors.tag07-Jun-2019 03:17 78  
[   ]web_video_server.tag07-Jun-2019 03:20 65K 
[   ]executive_smach_visualization.tag07-Jun-2019 03:25 78  
[   ]smach_viewer.tag07-Jun-2019 03:25 288K 
[   ]pr2_arm_kinematics.tag07-Jun-2019 03:30 36K 
[   ]pr2_kinematics.tag07-Jun-2019 03:30 78  
[   ]camera_umd.tag07-Jun-2019 03:32 78  
[   ]jpeg_streamer.tag07-Jun-2019 03:32 86K 
[   ]uvc_camera.tag07-Jun-2019 03:32 50K 
[   ]dummy_slam_broadcaster.tag07-Jun-2019 03:32 4.4K 
[   ]pepperl_fuchs_r2000.tag07-Jun-2019 03:32 46K 
[   ]static_tf.tag07-Jun-2019 03:40 78  
[   ]astuff_sensor_msgs.tag07-Jun-2019 03:47 78  
[   ]delphi_esr_msgs.tag07-Jun-2019 03:47 78  
[   ]delphi_mrr_msgs.tag07-Jun-2019 03:47 78  
[   ]delphi_srr_msgs.tag07-Jun-2019 03:47 78  
[   ]derived_object_msgs.tag07-Jun-2019 03:47 78  
[   ]ibeo_msgs.tag07-Jun-2019 03:47 78  
[   ]kartech_linear_actuator_msgs.tag07-Jun-2019 03:47 78  
[   ]mobileye_560_660_msgs.tag07-Jun-2019 03:47 78  
[   ]neobotix_usboard_msgs.tag07-Jun-2019 03:47 78  
[   ]pacmod_msgs.tag07-Jun-2019 03:47 78  
[   ]radar_msgs.tag07-Jun-2019 03:47 78  
[   ]raspimouse_control.tag07-Jun-2019 03:50 9.0K 
[   ]raspimouse_gazebo.tag07-Jun-2019 03:50 78  
[   ]raspimouse_sim.tag07-Jun-2019 03:50 78  
[   ]pr2_mechanism_msgs.tag07-Jun-2019 03:50 78  
[   ]rqt_nav_view.tag07-Jun-2019 03:52 22K 
[   ]grasping_msgs.tag07-Jun-2019 03:55 78  
[   ]rotors_comm.tag07-Jun-2019 03:56 78  
[   ]rotors_control.tag07-Jun-2019 03:56 74K 
[   ]rotors_description.tag07-Jun-2019 03:56 78  
[   ]rotors_evaluation.tag07-Jun-2019 03:56 66K 
[   ]rotors_gazebo.tag07-Jun-2019 03:56 29K 
[   ]rotors_gazebo_plugins.tag07-Jun-2019 03:56 362K 
[   ]rotors_hil_interface.tag07-Jun-2019 03:56 38K 
[   ]rotors_joy_interface.tag07-Jun-2019 03:56 21K 
[   ]rotors_simulator.tag07-Jun-2019 03:56 78  
[   ]rqt_rotors.tag07-Jun-2019 03:57 12K 
[   ]rc_cloud_accumulator.tag07-Jun-2019 03:57 16K 
[   ]eigen_stl_containers.tag07-Jun-2019 03:57 9.4K 
[   ]tf_remapper_cpp.tag07-Jun-2019 04:00 10K 
[   ]ar_track_alvar.tag07-Jun-2019 04:06 624K 
[   ]ar_track_alvar_msgs.tag07-Jun-2019 04:06 78  
[   ]teleop_twist_keyboard_cpp.tag07-Jun-2019 05:26 3.2K 
[   ]executive_smach.tag07-Jun-2019 05:26 78  
[   ]smach_msgs.tag07-Jun-2019 05:26 78  
[   ]geometry_tutorials.tag07-Jun-2019 05:31 78  
[   ]turtle_tf.tag07-Jun-2019 05:31 26K 
[   ]turtle_tf2.tag07-Jun-2019 05:31 32K 
[   ]arbotix.tag07-Jun-2019 05:40 78  
[   ]arbotix_controllers.tag07-Jun-2019 05:40 28K 
[   ]arbotix_firmware.tag07-Jun-2019 05:40 16K 
[   ]arbotix_msgs.tag07-Jun-2019 05:40 78  
[   ]arbotix_python.tag07-Jun-2019 05:40 123K 
[   ]arbotix_sensors.tag07-Jun-2019 05:40 12K 
[   ]xv_11_laser_driver.tag07-Jun-2019 05:52 4.6K 
[   ]nmea_msgs.tag07-Jun-2019 05:53 78  
[   ]ecl_command_line.tag07-Jun-2019 05:59 93K 
[   ]ecl_concepts.tag07-Jun-2019 05:59 23K 
[   ]ecl_containers.tag07-Jun-2019 05:59 317K 
[   ]ecl_converters.tag07-Jun-2019 05:59 55K 
[   ]ecl_core.tag07-Jun-2019 05:59 78  
[   ]ecl_core_apps.tag07-Jun-2019 05:59 31K 
[   ]ecl_devices.tag07-Jun-2019 05:59 69K 
[   ]ecl_eigen.tag07-Jun-2019 05:59 394  
[   ]ecl_exceptions.tag07-Jun-2019 05:59 18K 
[   ]ecl_filesystem.tag07-Jun-2019 05:59 4.3K 
[   ]ecl_formatters.tag07-Jun-2019 05:59 141K 
[   ]ecl_geometry.tag07-Jun-2019 05:59 278K 
[   ]ecl_ipc.tag07-Jun-2019 05:59 4.6K 
[   ]ecl_linear_algebra.tag07-Jun-2019 05:59 29K 
[   ]ecl_math.tag07-Jun-2019 05:59 15K 
[   ]ecl_mpl.tag07-Jun-2019 05:59 14K 
[   ]ecl_sigslots.tag07-Jun-2019 05:59 41K 
[   ]ecl_statistics.tag07-Jun-2019 05:59 24K 
[   ]ecl_streams.tag07-Jun-2019 05:59 59K 
[   ]ecl_threads.tag07-Jun-2019 05:59 18K 
[   ]ecl_time.tag07-Jun-2019 05:59 32K 
[   ]ecl_type_traits.tag07-Jun-2019 05:59 47K 
[   ]ecl_utilities.tag07-Jun-2019 05:59 94K 
[   ]tuw_control.tag08-Jun-2019 03:27 1.7M 
[   ]pcl_msgs.tag08-Jun-2019 03:28 78  
[   ]laser_pipeline.tag08-Jun-2019 03:29 78  
[   ]tuw_geometry.tag08-Jun-2019 03:32 140K 
[   ]geneus.tag08-Jun-2019 05:13 37K 
[   ]ros_pytest.tag08-Jun-2019 05:17 5.2K 
[   ]dynamic_edt_3d.tag08-Jun-2019 05:17 40K 
[   ]octomap.tag08-Jun-2019 05:17 488K 
[   ]octovis.tag08-Jun-2019 05:17 579K 
[   ]pacmod_game_control.tag08-Jun-2019 05:19 67K 
[   ]mrpt_msgs.tag08-Jun-2019 05:20 78  
[   ]cnn_bridge.tag08-Jun-2019 05:20 60K 
[   ]marker_msgs.tag08-Jun-2019 05:20 78  
[   ]vrpn_client_ros.tag08-Jun-2019 05:21 15K 
[   ]cartographer.tag08-Jun-2019 05:22 1.6M 
[   ]ethercat_grant.tag08-Jun-2019 05:22 740  
[   ]tuw_geometry_rviz.tag08-Jun-2019 05:25 20K 
[   ]tuw_nav_rviz.tag08-Jun-2019 05:25 79K 
[   ]tuw_object_rviz.tag08-Jun-2019 05:25 96K 
[   ]tuw_rviz.tag08-Jun-2019 05:25 78  
[   ]ocean_battery_driver.tag08-Jun-2019 05:25 32K 
[   ]power_monitor.tag08-Jun-2019 05:25 32K 
[   ]pr2_power_board.tag08-Jun-2019 05:25 84K 
[   ]pr2_power_drivers.tag08-Jun-2019 05:25 78  
[   ]media_export.tag08-Jun-2019 05:25 78  
[   ]fmi_adapter.tag08-Jun-2019 05:26 20K 
[   ]fmi_adapter_examples.tag08-Jun-2019 05:26 78  
[   ]gscam.tag08-Jun-2019 05:27 12K 
[   ]tf2_web_republisher.tag08-Jun-2019 05:28 27K 
[   ]fawkes_msgs.tag08-Jun-2019 05:28 78  
[   ]view_controller_msgs.tag08-Jun-2019 05:28 78  
[   ]openni_camera.tag08-Jun-2019 05:28 154K 
[   ]openni_description.tag08-Jun-2019 05:28 2.0K 
[   ]openni_launch.tag08-Jun-2019 05:28 78  
[   ]cartographer_ros.tag08-Jun-2019 05:28 167K 
[   ]cartographer_ros_msgs.tag08-Jun-2019 05:28 78  
[   ]cartographer_rviz.tag08-Jun-2019 05:28 28K 
[   ]dynamixel_workbench.tag08-Jun-2019 05:30 78  
[   ]dynamixel_workbench_controllers.tag08-Jun-2019 05:30 26K 
[   ]dynamixel_workbench_operators.tag08-Jun-2019 05:30 6.3K 
[   ]dynamixel_workbench_single_manager.tag08-Jun-2019 05:30 20K 
[   ]dynamixel_workbench_single_manager_gui.tag08-Jun-2019 05:30 33K 
[   ]dynamixel_workbench_toolbox.tag08-Jun-2019 05:30 116K 
[   ]ibeo_lux.tag08-Jun-2019 05:31 10K 
[   ]map_merge_3d.tag08-Jun-2019 05:31 45K 
[   ]ecl.tag08-Jun-2019 05:34 78  
[   ]ecl_manipulation.tag08-Jun-2019 05:34 78  
[   ]ecl_manipulators.tag08-Jun-2019 05:34 27K 
[   ]rail_manipulation_msgs.tag08-Jun-2019 05:36 78  
[   ]prbt_grippers.tag08-Jun-2019 05:37 78  
[   ]prbt_pg70_support.tag08-Jun-2019 05:37 78  
[   ]rqt_py_trees.tag08-Jun-2019 05:37 173K 
[   ]simple_grasping.tag08-Jun-2019 05:40 50K 
[   ]joint_trajectory_action_tools.tag08-Jun-2019 05:42 2.6K 
[   ]joint_trajectory_generator.tag08-Jun-2019 05:42 9.6K 
[   ]pr2_arm_move_ik.tag08-Jun-2019 05:42 15K 
[   ]pr2_common_actions.tag08-Jun-2019 05:42 78  
[   ]pr2_tilt_laser_interface.tag08-Jun-2019 05:42 10K 
[   ]pr2_tuck_arms_action.tag08-Jun-2019 05:42 16K 
[   ]nonpersistent_voxel_layer.tag09-Jun-2019 03:49 9.3K 
[   ]qb_chain.tag14-Jun-2019 03:15 78  
[   ]qb_chain_control.tag14-Jun-2019 03:15 78  
[   ]qb_chain_controllers.tag14-Jun-2019 03:15 24K 
[   ]qb_chain_description.tag14-Jun-2019 03:15 78  
[   ]eca_a9_control.tag17-Jun-2019 03:30 78  
[   ]eca_a9_description.tag17-Jun-2019 03:30 1.9K 
[   ]eca_a9_gazebo.tag17-Jun-2019 03:30 78  
[   ]teleop_keyboard_omni3.tag18-Jun-2019 03:32 9.5K 
[   ]abseil_cpp.tag19-Jun-2019 03:42 3.1M 
[   ]pyros_test.tag20-Jun-2019 03:32 33K 
[   ]fetch_simple_linear_controller.tag20-Jun-2019 03:57 5.4K 
[   ]octomap_ros.tag21-Jun-2019 03:43 8.3K 
[   ]doosan_robot.tag21-Jun-2019 03:44 78  
[   ]doosan_robotics.tag21-Jun-2019 03:44 78  
[   ]dsr_bringup.tag21-Jun-2019 03:44 78  
[   ]dsr_control.tag21-Jun-2019 03:44 42K 
[   ]dsr_description.tag21-Jun-2019 03:44 78  
[   ]dsr_example_cpp.tag21-Jun-2019 03:44 100K 
[   ]dsr_example_py.tag21-Jun-2019 03:44 374K 
[   ]dsr_gazebo.tag21-Jun-2019 03:44 78  
[   ]dsr_launcher.tag21-Jun-2019 03:44 9.5K 
[   ]dsr_msgs.tag21-Jun-2019 03:44 78  
[   ]moveit_config_m0609.tag21-Jun-2019 03:44 78  
[   ]moveit_config_m0617.tag21-Jun-2019 03:44 78  
[   ]moveit_config_m1013.tag21-Jun-2019 03:44 78  
[   ]moveit_config_m1509.tag21-Jun-2019 03:44 78  
[   ]laser_assembler.tag28-Jun-2019 03:31 83K 
[   ]omronsentech_camera.tag28-Jun-2019 03:31 104K 
[   ]drone_client.tag01-Jul-2019 03:44 52K 
[   ]drone_server.tag01-Jul-2019 03:44 11K 
[   ]microstrain_3dmgx2_imu.tag03-Jul-2019 03:19 47K 
[   ]flir_boson_usb.tag03-Jul-2019 03:55 15K 
[   ]teb_local_planner_tutorials.tag06-Jul-2019 03:55 41K 
[   ]ntpd_driver.tag09-Jul-2019 04:52 8.1K 
[   ]libuvc_camera.tag09-Jul-2019 04:55 15K 
[   ]libuvc_ros.tag09-Jul-2019 04:55 78  
[   ]tuw_multi_robot.tag11-Jul-2019 03:43 78  
[   ]tuw_multi_robot_ctrl.tag11-Jul-2019 03:43 62K 
[   ]tuw_multi_robot_demo.tag11-Jul-2019 03:43 78  
[   ]tuw_multi_robot_goal_generator.tag11-Jul-2019 03:43 14K 
[   ]tuw_multi_robot_local_behavior_controller.tag11-Jul-2019 03:43 37K 
[   ]tuw_multi_robot_router.tag11-Jul-2019 03:43 182K 
[   ]tuw_multi_robot_rviz.tag11-Jul-2019 03:43 81K 
[   ]tuw_voronoi_graph.tag11-Jul-2019 03:43 82K 
[   ]libfranka.tag12-Jul-2019 03:14 124K 
[   ]pipeline_planner.tag12-Jul-2019 03:39 36K 
[   ]openslam_gmapping.tag13-Jul-2019 03:20 426K 
[   ]nmea_gps_plugin.tag17-Jul-2019 03:51 22K 
[   ]quaternion_operation.tag18-Jul-2019 03:27 15K 
[   ]interactive_marker_twist_server.tag18-Jul-2019 03:40 4.4K 
[   ]clock_relay.tag19-Jul-2019 03:29 5.1K 
[   ]cpr_multimaster_tools.tag19-Jul-2019 03:29 78  
[   ]message_relay.tag19-Jul-2019 03:29 64K 
[   ]multimaster_launch.tag19-Jul-2019 03:29 78  
[   ]multimaster_msgs.tag19-Jul-2019 03:29 78  
[   ]tf2_relay.tag19-Jul-2019 03:29 5.5K 
[   ]octomap_rviz_plugins.tag19-Jul-2019 03:51 28K 
[   ]lms1xx.tag20-Jul-2019 03:14 21K 
[   ]rqt_app_example.tag27-Jul-2019 03:37 2.3K 
[   ]ethercat_hardware.tag28-Jul-2019 03:18 370K 
[   ]fingertip_pressure.tag28-Jul-2019 03:18 40K 
[   ]pr2_ethercat_drivers.tag28-Jul-2019 03:18 78  
[   ]warthog_desktop.tag01-Aug-2019 03:21 78  
[   ]warthog_viz.tag01-Aug-2019 03:21 78  
[   ]mavlink.tag02-Aug-2019 03:39 1.1M 
[   ]jackal_desktop.tag02-Aug-2019 03:48 78  
[   ]jackal_viz.tag02-Aug-2019 03:48 78  
[   ]ridgeback_desktop.tag03-Aug-2019 03:40 78  
[   ]ridgeback_viz.tag03-Aug-2019 03:40 78  
[   ]rosparam_handler.tag03-Aug-2019 03:56 39K 
[   ]nmea_comms.tag05-Aug-2019 03:48 13K 
[   ]sdhlibrary_cpp.tag19-Aug-2019 03:41 462K 
[   ]ecl_build.tag23-Aug-2019 03:19 2.8K 
[   ]ecl_license.tag23-Aug-2019 03:19 720  
[   ]ecl_tools.tag23-Aug-2019 03:19 78  
[   ]novatel_msgs.tag28-Aug-2019 03:53 78  
[   ]novatel_span_driver.tag28-Aug-2019 03:53 49K 
[   ]tensorflow_ros_cpp.tag01-Sep-2019 03:52 78  
[   ]rxcpp_vendor.tag02-Sep-2019 03:21 78  
[   ]face_detector.tag02-Sep-2019 03:41 35K 
[   ]leg_detector.tag02-Sep-2019 03:41 36K 
[   ]people.tag02-Sep-2019 03:41 78  
[   ]people_msgs.tag02-Sep-2019 03:41 78  
[   ]people_tracking_filter.tag02-Sep-2019 03:41 85K 
[   ]people_velocity_tracker.tag02-Sep-2019 03:41 12K 
[   ]pointcloud_to_laserscan.tag03-Sep-2019 03:49 18K 
[   ]network_interface.tag06-Sep-2019 03:56 23K 
[   ]rostate_machine.tag06-Sep-2019 03:59 34K 
[   ]xsens_driver.tag08-Sep-2019 03:16 76K 
[   ]actionlib.tag11-Sep-2019 03:37 370K 
[   ]lanelet2_msgs.tag12-Sep-2019 03:56 78  
[   ]tts.tag19-Sep-2019 03:20 31K 
[   ]lex_common.tag19-Sep-2019 03:24 47K 
[   ]kinesis_manager.tag19-Sep-2019 03:31 102K 
[   ]kinesis_video_msgs.tag20-Sep-2019 03:14 78  
[   ]kinesis_video_streamer.tag20-Sep-2019 03:14 53K 
[   ]h264_video_encoder.tag20-Sep-2019 03:19 13K 
[   ]industrial_core.tag20-Sep-2019 03:24 78  
[   ]industrial_deprecated.tag20-Sep-2019 03:24 367  
[   ]industrial_msgs.tag20-Sep-2019 03:24 361  
[   ]industrial_robot_client.tag20-Sep-2019 03:24 67K 
[   ]industrial_robot_simulator.tag20-Sep-2019 03:24 372  
[   ]industrial_trajectory_filters.tag20-Sep-2019 03:24 22K 
[   ]industrial_utils.tag20-Sep-2019 03:24 10K 
[   ]simple_message.tag20-Sep-2019 03:24 236K 
[   ]ros_monitoring_msgs.tag21-Sep-2019 03:28 78  
[   ]fkie_message_filters.tag21-Sep-2019 03:50 282K 
[   ]compressed_depth_image_transport.tag22-Sep-2019 03:28 20K 
[   ]compressed_image_transport.tag22-Sep-2019 03:28 13K 
[   ]image_transport_plugins.tag22-Sep-2019 03:28 78  
[   ]theora_image_transport.tag22-Sep-2019 03:28 19K 
[   ]haros_catkin.tag24-Sep-2019 03:19 78  
[   ]um6.tag28-Sep-2019 03:49 75K 
[   ]tuw_airskin_msgs.tag01-Oct-2019 03:12 78  
[   ]tuw_gazebo_msgs.tag01-Oct-2019 03:12 78  
[   ]tuw_geometry_msgs.tag01-Oct-2019 03:12 9.2K 
[   ]tuw_local_controller_msgs.tag01-Oct-2019 03:12 78  
[   ]tuw_msgs.tag01-Oct-2019 03:12 78  
[   ]tuw_multi_robot_msgs.tag01-Oct-2019 03:12 78  
[   ]tuw_nav_msgs.tag01-Oct-2019 03:12 9.4K 
[   ]tuw_object_msgs.tag01-Oct-2019 03:12 78  
[   ]tuw_vehicle_msgs.tag01-Oct-2019 03:12 1.9K 
[   ]tuw_waypoint_to_spline_msgs.tag01-Oct-2019 03:12 78  
[   ]niryo_one_description.tag01-Oct-2019 03:12 78  
[   ]niryo_one_gazebo.tag01-Oct-2019 03:12 78  
[   ]niryo_one_moveit_config.tag01-Oct-2019 03:12 78  
[   ]niryo_one_ros_simulation.tag01-Oct-2019 03:12 78  
[   ]ros_environment.tag04-Oct-2019 03:49 78  
[   ]qb_device.tag08-Oct-2019 04:10 78  
[   ]qb_device_bringup.tag08-Oct-2019 04:10 78  
[   ]qb_device_control.tag08-Oct-2019 04:10 18K 
[   ]qb_device_description.tag08-Oct-2019 04:10 78  
[   ]qb_device_driver.tag08-Oct-2019 04:10 83K 
[   ]qb_device_hardware_interface.tag08-Oct-2019 04:10 57K 
[   ]qb_device_msgs.tag08-Oct-2019 04:10 274  
[   ]qb_device_srvs.tag08-Oct-2019 04:10 274  
[   ]qb_device_utils.tag08-Oct-2019 04:10 3.2K 
[   ]qb_move.tag09-Oct-2019 03:24 78  
[   ]qb_move_control.tag09-Oct-2019 03:24 78  
[   ]qb_move_description.tag09-Oct-2019 03:24 78  
[   ]qb_move_hardware_interface.tag09-Oct-2019 03:24 24K 
[   ]qpoases_vendor.tag17-Oct-2019 03:45 78  
[   ]fetch_open_auto_dock.tag26-Oct-2019 03:26 70K 
[   ]rail_mesh_icp.tag01-Nov-2019 03:36 13K 
[   ]vision_visp.tag03-Nov-2019 03:29 78  
[   ]visp_auto_tracker.tag03-Nov-2019 03:29 79K 
[   ]visp_bridge.tag03-Nov-2019 03:29 17K 
[   ]visp_camera_calibration.tag03-Nov-2019 03:29 42K 
[   ]visp_hand2eye_calibration.tag03-Nov-2019 03:29 22K 
[   ]visp_tracker.tag03-Nov-2019 03:29 108K 
[   ]tuw_aruco.tag03-Nov-2019 03:35 7.1M 
[   ]tuw_checkerboard.tag03-Nov-2019 03:35 8.1K 
[   ]tuw_ellipses.tag03-Nov-2019 03:35 97K 
[   ]tuw_marker_detection.tag03-Nov-2019 03:35 78  
[   ]tuw_marker_pose_estimation.tag03-Nov-2019 03:35 48K 
[   ]h264_encoder_core.tag03-Nov-2019 03:44 36K 
[   ]depth_image_proc.tag07-Nov-2019 03:23 58K 
[   ]image_pipeline.tag07-Nov-2019 03:23 78  
[   ]image_proc.tag07-Nov-2019 03:23 46K 
[   ]image_publisher.tag07-Nov-2019 03:23 6.9K 
[   ]image_rotate.tag07-Nov-2019 03:23 9.4K 
[   ]image_view.tag07-Nov-2019 03:23 34K 
[   ]stereo_image_proc.tag07-Nov-2019 03:23 41K 
[   ]ros_introspection.tag07-Nov-2019 03:50 100K 
[   ]roscompile.tag07-Nov-2019 03:50 82K 
[   ]can_msgs.tag07-Nov-2019 03:54 78  
[   ]canopen_402.tag07-Nov-2019 03:54 89K 
[   ]canopen_chain_node.tag07-Nov-2019 03:54 43K 
[   ]canopen_master.tag07-Nov-2019 03:54 273K 
[   ]canopen_motor_node.tag07-Nov-2019 03:54 67K 
[   ]ros_canopen.tag07-Nov-2019 03:54 78  
[   ]socketcan_bridge.tag07-Nov-2019 03:54 19K 
[   ]socketcan_interface.tag07-Nov-2019 03:54 132K 
[   ]turtlesim_dash_tutorial.tag10-Nov-2019 03:18 11K 
[   ]swri_profiler.tag12-Nov-2019 03:20 20K 
[   ]swri_profiler_msgs.tag12-Nov-2019 03:20 78  
[   ]swri_profiler_tools.tag12-Nov-2019 03:20 82K 
[   ]ubiquity_motor.tag12-Nov-2019 03:28 184K 
[   ]dbw_mkz_twist_controller.tag13-Nov-2019 03:52 32K 
[   ]fetch_tools.tag16-Nov-2019 04:02 31K 
[   ]baylands.tag21-Nov-2019 03:20 78  
[   ]ksql_airport.tag21-Nov-2019 03:20 78  
[   ]mcmillan_airfield.tag21-Nov-2019 03:20 78  
[   ]sand_island.tag21-Nov-2019 03:20 78  
[   ]yosemite_valley.tag21-Nov-2019 03:20 78  
[   ]laptop_battery_monitor.tag22-Nov-2019 03:14 13K 
[   ]libsensors_monitor.tag22-Nov-2019 03:14 15K 
[   ]linux_peripheral_interfaces.tag22-Nov-2019 03:14 78  
[   ]laser_tilt_controller_filter.tag23-Nov-2019 03:21 5.3K 
[   ]pr2_move_base.tag23-Nov-2019 03:21 9.2K 
[   ]pr2_navigation.tag23-Nov-2019 03:21 78  
[   ]pr2_navigation_config.tag23-Nov-2019 03:21 78  
[   ]pr2_navigation_global.tag23-Nov-2019 03:21 78  
[   ]pr2_navigation_local.tag23-Nov-2019 03:21 78  
[   ]pr2_navigation_perception.tag23-Nov-2019 03:21 4.4K 
[   ]pr2_navigation_self_filter.tag23-Nov-2019 03:21 126K 
[   ]pr2_navigation_slam.tag23-Nov-2019 03:21 78  
[   ]pr2_navigation_teleop.tag23-Nov-2019 03:21 78  
[   ]semantic_point_annotator.tag23-Nov-2019 03:21 39K 
[   ]bta_tof_driver.tag23-Nov-2019 03:53 23K 
[   ]schunk_description.tag24-Nov-2019 03:23 78  
[   ]schunk_libm5api.tag24-Nov-2019 03:23 445K 
[   ]schunk_modular_robotics.tag24-Nov-2019 03:23 78  
[   ]schunk_powercube_chain.tag24-Nov-2019 03:23 153K 
[   ]schunk_sdh.tag24-Nov-2019 03:23 30K 
[   ]schunk_simulated_tactile_sensors.tag24-Nov-2019 03:23 8.8K 
[   ]edrone_client.tag01-Dec-2019 03:45 47K 
[   ]edrone_server.tag01-Dec-2019 03:45 15K 
[   ]eyantra_drone.tag01-Dec-2019 03:45 78  
[   ]cis_camera.tag06-Dec-2019 03:34 48K 
[   ]libcreate.tag06-Dec-2019 03:50 172K 
[   ]dockeros.tag09-Dec-2019 21:12 20K 
[   ]blender_gazebo.tag09-Dec-2019 21:16 9.9K 
[   ]ml_classifiers.tag15-Dec-2019 04:01 223K 
[   ]caster_app.tag16-Dec-2019 03:11 60K 
[   ]caster_base.tag16-Dec-2019 03:11 28K 
[   ]caster_control.tag16-Dec-2019 03:11 78  
[   ]caster_description.tag16-Dec-2019 03:11 78  
[   ]caster_desktop.tag16-Dec-2019 03:11 78  
[   ]caster_navigation.tag16-Dec-2019 03:11 78  
[   ]caster_robot.tag16-Dec-2019 03:11 78  
[   ]caster_teleop.tag16-Dec-2019 03:11 78  
[   ]caster_viz.tag16-Dec-2019 03:11 78  
[   ]tracetools.tag19-Dec-2019 03:37 30K 
[   ]vtec_msgs.tag19-Dec-2019 03:48 78  
[   ]vtec_ros.tag19-Dec-2019 03:48 78  
[   ]vtec_tracker.tag19-Dec-2019 03:48 17K 
[   ]microstrain_mips.tag20-Dec-2019 03:18 63K 
[   ]safe_teleop_base.tag21-Dec-2019 03:12 28K 
[   ]safe_teleop_pr2.tag21-Dec-2019 03:12 374  
[   ]safe_teleop_stage.tag21-Dec-2019 03:12 376  
[   ]fake_joint.tag21-Dec-2019 04:09 78  
[   ]fake_joint_driver.tag21-Dec-2019 04:09 8.1K 
[   ]fake_joint_launch.tag21-Dec-2019 04:09 78  
[   ]pose_cov_ops.tag26-Dec-2019 03:16 13K 
[   ]rplidar_ros.tag01-Jan-2020 03:11 267K 
[   ]radar_pa.tag03-Jan-2020 03:54 9.3K 
[   ]radar_pa_msgs.tag03-Jan-2020 03:54 78  
[   ]asr_msgs.tag04-Jan-2020 03:45 338  
[   ]naoqi_bridge_msgs.tag10-Jan-2020 04:00 78  
[   ]asr_mild_navigation.tag11-Jan-2020 03:16 78  
[   ]asr_aruco_marker_recognition.tag11-Jan-2020 03:17 131K 
[   ]asr_kinematic_chain_dome.tag11-Jan-2020 03:19 78  
[   ]asr_grid_creator.tag11-Jan-2020 03:22 12K 
[   ]asr_lib_ism.tag11-Jan-2020 03:22 1.3M 
[   ]asr_relation_graph_generator.tag11-Jan-2020 03:30 82K 
[   ]asr_object_database.tag11-Jan-2020 03:30 134K 
[   ]asr_mild_base_driving.tag11-Jan-2020 03:35 51K 
[   ]rosfmt.tag11-Jan-2020 03:35 18K 
[   ]asr_rapidxml.tag11-Jan-2020 03:45 63K 
[   ]asr_sick_lms_400.tag11-Jan-2020 03:48 25K 
[   ]asr_world_model.tag11-Jan-2020 03:50 109K 
[   ]asr_resources_for_psm.tag11-Jan-2020 03:51 3.9K 
[   ]asr_navfn.tag11-Jan-2020 04:03 42K 
[   ]asr_mild_base_laserscanner.tag13-Jan-2020 18:39 105K 
[   ]asr_flock_of_birds.tag13-Jan-2020 18:39 124K 
[   ]asr_calibration_tool_dome.tag13-Jan-2020 18:40 5.2K 
[   ]asr_robot.tag13-Jan-2020 19:31 78  
[   ]asr_resources_for_vision.tag13-Jan-2020 19:32 78  
[   ]asr_visualization_server.tag13-Jan-2020 19:33 20K 
[   ]asr_flir_ptu_controller.tag13-Jan-2020 19:34 21K 
[   ]asr_gazebo_models.tag13-Jan-2020 19:34 78  
[   ]asr_ros_uri.tag13-Jan-2020 19:34 3.8K 
[   ]asr_ism_visualizations.tag13-Jan-2020 19:34 83K 
[   ]asr_psm.tag13-Jan-2020 19:35 2.1M 
[   ]asr_intermediate_object_generator.tag13-Jan-2020 19:35 35K 
[   ]asr_lib_pose_prediction_ism.tag13-Jan-2020 19:35 53K 
[   ]asr_kinematic_chain_optimizer.tag13-Jan-2020 19:35 205K 
[   ]asr_ftc_local_planner.tag13-Jan-2020 19:35 16K 
[   ]asr_recognizer_prediction_ism.tag13-Jan-2020 19:36 71K 
[   ]asr_direct_search_manager.tag13-Jan-2020 19:36 125K 
[   ]asr_cyberglove_visualization.tag13-Jan-2020 19:37 5.8K 
[   ]asr_mild_kinematic_chain.tag13-Jan-2020 19:37 78  
[   ]asr_cyberglove_lib.tag13-Jan-2020 19:37 57K 
[   ]asr_rviz_pose_manager.tag13-Jan-2020 19:37 1.2K 
[   ]asr_xsd2cpp.tag13-Jan-2020 19:37 831  
[   ]asr_robot_model_services.tag13-Jan-2020 19:37 157K 
[   ]asr_descriptor_surface_based_recognition.tag13-Jan-2020 19:37 319K 
[   ]asr_ivt.tag13-Jan-2020 19:37 1.7M 
[   ]asr_mild_calibration_tool.tag13-Jan-2020 19:37 151K 
[   ]asr_mild_base_launch_files.tag13-Jan-2020 19:38 78  
[   ]asr_psm_visualizations.tag13-Jan-2020 19:38 207K 
[   ]asr_flir_ptu_driver.tag13-Jan-2020 19:39 133K 
[   ]asr_ivt_bridge.tag13-Jan-2020 19:39 17K 
[   ]asr_ism.tag13-Jan-2020 19:39 137K 
[   ]asr_next_best_view.tag14-Jan-2020 03:48 409K 
[   ]kobuki_core.tag17-Jan-2020 04:01 78  
[   ]kobuki_dock_drive.tag17-Jan-2020 04:01 30K 
[   ]kobuki_driver.tag17-Jan-2020 04:01 220K 
[   ]kobuki_ftdi.tag17-Jan-2020 04:01 14K 
[   ]test_osm.tag19-Jan-2020 03:13 78  
[   ]staubli.tag21-Jan-2020 03:41 78  
[   ]staubli_resources.tag21-Jan-2020 03:41 78  
[   ]staubli_rx160_moveit_config.tag21-Jan-2020 03:41 78  
[   ]staubli_rx160_moveit_plugins.tag21-Jan-2020 03:41 126K 
[   ]staubli_rx160_support.tag21-Jan-2020 03:41 78  
[   ]kobuki_msgs.tag21-Jan-2020 03:43 78  
[   ]mav_comm.tag23-Jan-2020 03:18 78  
[   ]mav_msgs.tag23-Jan-2020 03:18 83K 
[   ]mav_planning_msgs.tag23-Jan-2020 03:18 13K 
[   ]mav_state_machine_msgs.tag23-Jan-2020 03:18 78  
[   ]mav_system_msgs.tag23-Jan-2020 03:18 78  
[   ]genlisp.tag26-Jan-2020 03:32 36K 
[   ]gennodejs.tag27-Jan-2020 03:58 35K 
[   ]message_runtime.tag28-Jan-2020 03:33 78  
[   ]fanuc.tag28-Jan-2020 03:48 78  
[   ]fanuc_cr7ia_moveit_config.tag28-Jan-2020 03:48 78  
[   ]fanuc_cr7ia_support.tag28-Jan-2020 03:48 78  
[   ]fanuc_cr7ial_moveit_config.tag28-Jan-2020 03:48 78  
[   ]fanuc_cr35ia_support.tag28-Jan-2020 03:48 78  
[   ]fanuc_driver.tag28-Jan-2020 03:48 7.1K 
[   ]fanuc_lrmate200i_moveit_config.tag28-Jan-2020 03:48 78  
[   ]fanuc_lrmate200i_moveit_plugins.tag28-Jan-2020 03:48 127K 
[   ]fanuc_lrmate200i_support.tag28-Jan-2020 03:48 78  
[   ]fanuc_lrmate200ib3l_moveit_config.tag28-Jan-2020 03:48 78  
[   ]fanuc_lrmate200ib_moveit_config.tag28-Jan-2020 03:48 78  
[   ]fanuc_lrmate200ib_moveit_plugins.tag28-Jan-2020 03:48 242K 
[   ]fanuc_lrmate200ib_support.tag28-Jan-2020 03:48 78  
[   ]fanuc_lrmate200ic5h_moveit_config.tag28-Jan-2020 03:48 78  
[   ]fanuc_lrmate200ic5l_moveit_config.tag28-Jan-2020 03:48 78  
[   ]fanuc_lrmate200ic_moveit_config.tag28-Jan-2020 03:48 78  
[   ]fanuc_lrmate200ic_moveit_plugins.tag28-Jan-2020 03:48 583K 
[   ]fanuc_lrmate200ic_support.tag28-Jan-2020 03:48 78  
[   ]fanuc_m10ia_moveit_config.tag28-Jan-2020 03:48 78  
[   ]fanuc_m10ia_moveit_plugins.tag28-Jan-2020 03:48 126K 
[   ]fanuc_m10ia_support.tag28-Jan-2020 03:48 78  
[   ]fanuc_m16ib20_moveit_config.tag28-Jan-2020 03:48 78  
[   ]fanuc_m16ib_moveit_plugins.tag28-Jan-2020 03:48 126K 
[   ]fanuc_m16ib_support.tag28-Jan-2020 03:48 78  
[   ]fanuc_m20ia10l_moveit_config.tag28-Jan-2020 03:48 78  
[   ]fanuc_m20ia_moveit_config.tag28-Jan-2020 03:48 78  
[   ]fanuc_m20ia_moveit_plugins.tag28-Jan-2020 03:48 238K 
[   ]fanuc_m20ia_support.tag28-Jan-2020 03:48 78  
[   ]fanuc_m20ib25_moveit_config.tag28-Jan-2020 03:48 78  
[   ]fanuc_m20ib_moveit_plugins.tag28-Jan-2020 03:48 143K 
[   ]fanuc_m20ib_support.tag28-Jan-2020 03:48 78  
[   ]fanuc_m430ia2f_moveit_config.tag28-Jan-2020 03:48 78  
[   ]fanuc_m430ia2p_moveit_config.tag28-Jan-2020 03:48 78  
[   ]fanuc_m6ib_moveit_config.tag28-Jan-2020 03:49 78  
[   ]fanuc_m6ib_moveit_plugins.tag28-Jan-2020 03:49 127K 
[   ]fanuc_m6ib_support.tag28-Jan-2020 03:49 78  
[   ]fanuc_m430ia_moveit_plugins.tag28-Jan-2020 03:49 238K 
[   ]fanuc_m430ia_support.tag28-Jan-2020 03:49 78  
[   ]fanuc_m710ic_support.tag28-Jan-2020 03:49 78  
[   ]fanuc_m900ia_support.tag28-Jan-2020 03:49 78  
[   ]fanuc_m900ib_support.tag28-Jan-2020 03:49 78  
[   ]fanuc_r1000ia80f_moveit_config.tag28-Jan-2020 03:49 78  
[   ]fanuc_r1000ia_moveit_plugins.tag28-Jan-2020 03:49 128K 
[   ]fanuc_r1000ia_support.tag28-Jan-2020 03:49 78  
[   ]fanuc_resources.tag28-Jan-2020 03:49 78  
[   ]ensenso_camera.tag06-Feb-2020 03:15 118K 
[   ]ensenso_camera_msgs.tag06-Feb-2020 03:15 78  
[   ]ensenso_camera_test.tag06-Feb-2020 03:15 46K 
[   ]ensenso_description.tag06-Feb-2020 03:15 78  
[   ]ensenso_driver.tag06-Feb-2020 03:15 78  
[   ]asr_state_machine.tag06-Feb-2020 03:32 113K 
[   ]franka_control.tag07-Feb-2020 04:04 8.5K 
[   ]franka_description.tag07-Feb-2020 04:04 359  
[   ]franka_example_controllers.tag07-Feb-2020 04:04 94K 
[   ]franka_gripper.tag07-Feb-2020 04:04 7.6K 
[   ]franka_hw.tag07-Feb-2020 04:04 150K 
[   ]franka_msgs.tag07-Feb-2020 04:04 352  
[   ]franka_ros.tag07-Feb-2020 04:04 351  
[   ]franka_visualization.tag07-Feb-2020 04:04 1.3K 
[   ]class_loader.tag08-Feb-2020 03:21 102K 
[   ]filters.tag08-Feb-2020 03:40 60K 
[   ]fsrobo_r.tag08-Feb-2020 03:41 78  
[   ]fsrobo_r_bringup.tag08-Feb-2020 03:41 78  
[   ]fsrobo_r_description.tag08-Feb-2020 03:41 78  
[   ]fsrobo_r_driver.tag08-Feb-2020 03:41 626K 
[   ]fsrobo_r_moveit_config.tag08-Feb-2020 03:41 78  
[   ]fsrobo_r_msgs.tag08-Feb-2020 03:41 78  
[   ]fsrobo_r_trajectory_filters.tag08-Feb-2020 03:41 10K 
[   ]actionlib_msgs.tag09-Feb-2020 03:18 3.1K 
[   ]common_msgs.tag09-Feb-2020 03:18 78  
[   ]diagnostic_msgs.tag09-Feb-2020 03:18 357  
[   ]geometry_msgs.tag09-Feb-2020 03:18 483  
[   ]nav_msgs.tag09-Feb-2020 03:18 78  
[   ]sensor_msgs.tag09-Feb-2020 03:18 77K 
[   ]shape_msgs.tag09-Feb-2020 03:18 78  
[   ]stereo_msgs.tag09-Feb-2020 03:18 353  
[   ]trajectory_msgs.tag09-Feb-2020 03:18 78  
[   ]visualization_msgs.tag09-Feb-2020 03:18 360  
[   ]um7.tag11-Feb-2020 03:13 85K 
[   ]rosgraph_msgs.tag11-Feb-2020 03:21 78  
[   ]std_srvs.tag11-Feb-2020 03:21 352  
[   ]industrial_robot_status_controller.tag12-Feb-2020 03:19 8.0K 
[   ]industrial_robot_status_interface.tag12-Feb-2020 03:19 9.2K 
[   ]aws_ros1_common.tag12-Feb-2020 03:25 17K 
[   ]pacmod.tag12-Feb-2020 03:57 82K 
[   ]webkit_dependency.tag13-Feb-2020 03:13 78  
[   ]message_generation.tag13-Feb-2020 03:44 78  
[   ]gl_dependency.tag13-Feb-2020 03:50 78  
[   ]std_msgs.tag13-Feb-2020 04:02 24K 
[   ]rosconsole_bridge.tag14-Feb-2020 09:37 4.8K 
[   ]pluginlib.tag15-Feb-2020 04:01 43K 
[   ]ira_laser_tools.tag16-Feb-2020 03:14 15K 
[   ]resource_retriever.tag16-Feb-2020 03:36 15K 
[   ]rail_segmentation.tag16-Feb-2020 03:43 42K 
[   ]naoqi_driver.tag16-Feb-2020 03:51 518K 
[   ]asr_resources_for_active_scene_recognition.tag18-Feb-2020 03:14 93K 
[   ]asr_mild_base_fake_driving.tag18-Feb-2020 03:16 3.7K 
[   ]asr_recognizer_prediction_psm.tag18-Feb-2020 03:19 146K 
[   ]asr_fake_object_recognition.tag18-Feb-2020 03:24 50K 
[   ]asr_flock_of_birds_tracking.tag18-Feb-2020 03:31 10K 
[   ]seed_smartactuator_sdk.tag20-Feb-2020 03:37 47K 
[   ]euslisp.tag21-Feb-2020 03:16 1.3M 
[   ]eband_local_planner.tag21-Feb-2020 04:00 60K 
[   ]orocos_kinematics_dynamics.tag22-Feb-2020 03:23 78  
[   ]ubnt_airos_tools.tag22-Feb-2020 03:44 78  
[   ]iirob_filters.tag26-Feb-2020 03:33 43K 
[   ]nmea_navsat_driver.tag26-Feb-2020 04:00 19K 
[   ]ati_force_torque.tag27-Feb-2020 03:19 81K 
[   ]mrpt_bridge.tag27-Feb-2020 03:29 134K 
[   ]mikrotik_swos_tools.tag28-Feb-2020 03:49 78  
[   ]force_torque_sensor.tag28-Feb-2020 03:53 37K 
[   ]dynamic_tf_publisher.tag03-Mar-2020 03:16 15K 
[   ]image_view2.tag03-Mar-2020 03:16 71K 
[   ]jsk_common.tag03-Mar-2020 03:16 78  
[   ]jsk_data.tag03-Mar-2020 03:16 58K 
[   ]jsk_network_tools.tag03-Mar-2020 03:16 105K 
[   ]jsk_tilt_laser.tag03-Mar-2020 03:16 18K 
[   ]jsk_topic_tools.tag03-Mar-2020 03:16 277K 
[   ]multi_map_server.tag03-Mar-2020 03:16 1.7K 
[   ]virtual_force_publisher.tag03-Mar-2020 03:16 6.1K 
[   ]ros_numpy.tag05-Mar-2020 03:41 31K 
[   ]qwt_dependency.tag05-Mar-2020 03:49 78  
[   ]jackal_cartographer_navigation.tag06-Mar-2020 03:23 78  
[   ]ridgeback_cartographer_navigation.tag06-Mar-2020 03:23 78  
[   ]ridgeback_control.tag07-Mar-2020 03:36 29K 
[   ]ridgeback_description.tag07-Mar-2020 03:36 78  
[   ]ridgeback_msgs.tag07-Mar-2020 03:36 78  
[   ]ridgeback_navigation.tag07-Mar-2020 03:36 78  
[   ]carla_msgs.tag08-Mar-2020 03:18 78  
[   ]urdf.tag08-Mar-2020 03:56 14K 
[   ]urdf_parser_plugin.tag08-Mar-2020 03:56 1.4K 
[   ]mrt_cmake_modules.tag10-Mar-2020 03:54 40K 
[   ]mrpt_local_obstacles.tag10-Mar-2020 04:04 9.6K 
[   ]mrpt_localization.tag10-Mar-2020 04:04 41K 
[   ]mrpt_map.tag10-Mar-2020 04:04 5.0K 
[   ]mrpt_navigation.tag10-Mar-2020 04:04 78  
[   ]mrpt_rawlog.tag10-Mar-2020 04:04 37K 
[   ]mrpt_reactivenav2d.tag10-Mar-2020 04:04 15K 
[   ]mrpt_tutorials.tag10-Mar-2020 04:04 78  
[   ]map_msgs.tag11-Mar-2020 03:28 78  
[   ]move_base_msgs.tag11-Mar-2020 03:28 78  
[   ]joint_state_publisher.tag13-Mar-2020 03:12 7.1K 
[   ]joint_state_publisher_gui.tag13-Mar-2020 03:12 9.6K 
[   ]pouco2000_ros.tag13-Mar-2020 03:22 73K 
[   ]pouco2000_ros_demo.tag13-Mar-2020 03:22 8.3K 
[   ]pouco2000_ros_gazebo.tag13-Mar-2020 03:22 17K 
[   ]pouco2000_ros_msgs.tag13-Mar-2020 03:22 78  
[   ]pouco2000_ros_tools.tag13-Mar-2020 03:22 32K 
[   ]eigen_conversions.tag13-Mar-2020 03:29 28K 
[   ]geometry.tag13-Mar-2020 03:29 78  
[   ]kdl_conversions.tag13-Mar-2020 03:29 16K 
[   ]tf.tag13-Mar-2020 03:29 241K 
[   ]tf_conversions.tag13-Mar-2020 03:29 29K 
[   ]ipr_extern.tag13-Mar-2020 03:57 78  
[   ]libmodbus.tag13-Mar-2020 03:57 103K 
[   ]libreflexxestype2.tag13-Mar-2020 03:57 230K 
[   ]ros_reflexxes.tag13-Mar-2020 03:57 24K 
[   ]angles.tag14-Mar-2020 03:24 16K 
[   ]staubli_experimental.tag14-Mar-2020 04:02 78  
[   ]staubli_rx160_gazebo.tag14-Mar-2020 04:02 78  
[   ]staubli_tx2_60_support.tag14-Mar-2020 04:02 78  
[   ]staubli_tx2_90_support.tag14-Mar-2020 04:02 78  
[   ]staubli_tx60_gazebo.tag14-Mar-2020 04:02 78  
[   ]staubli_tx60_support.tag14-Mar-2020 04:02 78  
[   ]staubli_tx90_gazebo.tag14-Mar-2020 04:02 78  
[   ]staubli_tx90_support.tag14-Mar-2020 04:02 78  
[   ]roslint.tag17-Mar-2020 03:30 211K 
[   ]rqt_action.tag18-Mar-2020 03:23 3.3K 
[   ]gmapping.tag18-Mar-2020 03:57 31K 
[   ]slam_gmapping.tag18-Mar-2020 03:57 78  
[   ]laser_filters.tag19-Mar-2020 03:11 64K 
[   ]cob_collision_monitor.tag19-Mar-2020 03:14 5.8K 
[   ]cob_grasp_generation.tag19-Mar-2020 03:14 23K 
[   ]cob_lookat_action.tag19-Mar-2020 03:14 11K 
[   ]cob_manipulation.tag19-Mar-2020 03:14 78  
[   ]cob_moveit_bringup.tag19-Mar-2020 03:14 78  
[   ]cob_moveit_interface.tag19-Mar-2020 03:14 19K 
[   ]cob_obstacle_distance_moveit.tag19-Mar-2020 03:14 24K 
[   ]cob_docker_control.tag19-Mar-2020 03:26 870  
[   ]cob_reflector_referencing.tag19-Mar-2020 03:26 78  
[   ]cob_safety_controller.tag19-Mar-2020 03:26 440  
[   ]cob_substitute.tag19-Mar-2020 03:26 78  
[   ]cob_supported_robots.tag19-Mar-2020 03:31 78  
[   ]async_comm.tag19-Mar-2020 03:33 57K 
[   ]lex_common_msgs.tag19-Mar-2020 03:42 78  
[   ]lex_node.tag19-Mar-2020 03:42 11K 
[   ]cob_gazebo_plugins.tag20-Mar-2020 03:13 78  
[   ]cob_gazebo_ros_control.tag20-Mar-2020 03:13 10K 
[   ]cob_3d_mapping_msgs.tag20-Mar-2020 03:22 78  
[   ]cob_cam3d_throttle.tag20-Mar-2020 03:22 10K 
[   ]cob_image_flip.tag20-Mar-2020 03:22 17K 
[   ]cob_object_detection_msgs.tag20-Mar-2020 03:22 6.0K 
[   ]cob_object_detection_visualizer.tag20-Mar-2020 03:22 9.1K 
[   ]cob_perception_common.tag20-Mar-2020 03:22 78  
[   ]cob_perception_msgs.tag20-Mar-2020 03:22 78  
[   ]cob_vision_utils.tag20-Mar-2020 03:22 107K 
[   ]ipa_3d_fov_visualization.tag20-Mar-2020 03:22 2.2K 
[   ]cob_android.tag20-Mar-2020 03:22 78  
[   ]cob_android_msgs.tag20-Mar-2020 03:22 78  
[   ]cob_android_resource_server.tag20-Mar-2020 03:22 5.9K 
[   ]cob_android_script_server.tag20-Mar-2020 03:22 4.2K 
[   ]cob_android_settings.tag20-Mar-2020 03:22 427  
[   ]cob_default_env_config.tag20-Mar-2020 03:23 78  
[   ]cob_environments.tag20-Mar-2020 03:23 78  
[   ]cob_base_drive_chain.tag20-Mar-2020 03:23 52K 
[   ]cob_bms_driver.tag20-Mar-2020 03:23 34K 
[   ]cob_camera_sensors.tag20-Mar-2020 03:23 136K 
[   ]cob_canopen_motor.tag20-Mar-2020 03:23 63K 
[   ]cob_driver.tag20-Mar-2020 03:23 78  
[   ]cob_elmo_homing.tag20-Mar-2020 03:23 5.4K 
[   ]cob_generic_can.tag20-Mar-2020 03:23 36K 
[   ]cob_light.tag20-Mar-2020 03:23 108K 
[   ]cob_mimic.tag20-Mar-2020 03:23 11K 
[   ]cob_phidget_em_state.tag20-Mar-2020 03:23 5.5K 
[   ]cob_phidget_power_state.tag20-Mar-2020 03:23 8.8K 
[   ]cob_phidgets.tag20-Mar-2020 03:23 42K 
[   ]cob_relayboard.tag20-Mar-2020 03:23 62K 
[   ]cob_scan_unifier.tag20-Mar-2020 03:23 7.5K 
[   ]cob_sick_lms1xx.tag20-Mar-2020 03:23 22K 
[   ]cob_sick_s300.tag20-Mar-2020 03:23 57K 
[   ]cob_sound.tag20-Mar-2020 03:23 13K 
[   ]cob_undercarriage_ctrl.tag20-Mar-2020 03:23 30K 
[   ]cob_utilities.tag20-Mar-2020 03:23 30K 
[   ]cob_voltage_control.tag20-Mar-2020 03:23 45K 
[   ]laser_scan_densifier.tag20-Mar-2020 03:23 6.3K 
[   ]cob_bringup.tag20-Mar-2020 03:27 78  
[   ]cob_default_robot_behavior.tag20-Mar-2020 03:27 18K 
[   ]cob_default_robot_config.tag20-Mar-2020 03:27 78  
[   ]cob_hardware_config.tag20-Mar-2020 03:27 78  
[   ]cob_moveit_config.tag20-Mar-2020 03:27 78  
[   ]cob_robots.tag20-Mar-2020 03:27 78  
[   ]cob_command_gui.tag20-Mar-2020 03:28 17K 
[   ]cob_command_tools.tag20-Mar-2020 03:28 78  
[   ]cob_dashboard.tag20-Mar-2020 03:28 15K 
[   ]cob_helper_tools.tag20-Mar-2020 03:28 19K 
[   ]cob_interactive_teleop.tag20-Mar-2020 03:28 23K 
[   ]cob_monitoring.tag20-Mar-2020 03:28 85K 
[   ]cob_script_server.tag20-Mar-2020 03:28 46K 
[   ]cob_teleop.tag20-Mar-2020 03:28 35K 
[   ]generic_throttle.tag20-Mar-2020 03:28 5.3K 
[   ]scenario_test_tools.tag20-Mar-2020 03:28 55K 
[   ]service_tools.tag20-Mar-2020 03:28 78  
[   ]cob_linear_nav.tag20-Mar-2020 03:39 16K 
[   ]cob_map_accessibility_analysis.tag20-Mar-2020 03:39 29K 
[   ]cob_mapping_slam.tag20-Mar-2020 03:39 78  
[   ]cob_navigation.tag20-Mar-2020 03:39 78  
[   ]cob_navigation_config.tag20-Mar-2020 03:39 78  
[   ]cob_navigation_global.tag20-Mar-2020 03:39 78  
[   ]cob_navigation_local.tag20-Mar-2020 03:39 78  
[   ]cob_navigation_slam.tag20-Mar-2020 03:39 78  
[   ]hw_bridge.tag20-Mar-2020 03:40 12K 
[   ]toposens.tag20-Mar-2020 03:49 78  
[   ]toposens_description.tag20-Mar-2020 03:49 78  
[   ]toposens_driver.tag20-Mar-2020 03:49 27K 
[   ]toposens_markers.tag20-Mar-2020 03:49 7.2K 
[   ]toposens_msgs.tag20-Mar-2020 03:49 78  
[   ]toposens_pointcloud.tag20-Mar-2020 03:49 12K 
[   ]toposens_sync.tag20-Mar-2020 03:49 4.3K 
[   ]cob_bringup_sim.tag20-Mar-2020 04:00 78  
[   ]cob_gazebo.tag20-Mar-2020 04:00 3.1K 
[   ]cob_gazebo_objects.tag20-Mar-2020 04:00 78  
[   ]cob_gazebo_tools.tag20-Mar-2020 04:00 29K 
[   ]cob_gazebo_worlds.tag20-Mar-2020 04:00 3.5K 
[   ]cob_simulation.tag20-Mar-2020 04:00 78  
[   ]ifm3d.tag21-Mar-2020 03:16 25K 
[   ]cob_actions.tag21-Mar-2020 03:17 78  
[   ]cob_common.tag21-Mar-2020 03:17 78  
[   ]cob_description.tag21-Mar-2020 03:17 904  
[   ]cob_msgs.tag21-Mar-2020 03:17 78  
[   ]cob_srvs.tag21-Mar-2020 03:17 78  
[   ]raw_description.tag21-Mar-2020 03:17 78  
[   ]cob_calibration_data.tag21-Mar-2020 03:28 78  
[   ]cob_base_controller_utils.tag22-Mar-2020 03:48 8.3K 
[   ]cob_base_velocity_smoother.tag22-Mar-2020 03:48 28K 
[   ]cob_cartesian_controller.tag22-Mar-2020 03:48 74K 
[   ]cob_collision_velocity_filter.tag22-Mar-2020 03:48 33K 
[   ]cob_control.tag22-Mar-2020 03:48 78  
[   ]cob_control_mode_adapter.tag22-Mar-2020 03:48 10K 
[   ]cob_control_msgs.tag22-Mar-2020 03:48 78  
[   ]cob_footprint_observer.tag22-Mar-2020 03:48 8.2K 
[   ]cob_frame_tracker.tag22-Mar-2020 03:48 47K 
[   ]cob_hardware_emulation.tag22-Mar-2020 03:48 13K 
[   ]cob_mecanum_controller.tag22-Mar-2020 03:48 6.9K 
[   ]cob_model_identifier.tag22-Mar-2020 03:48 20K 
[   ]cob_obstacle_distance.tag22-Mar-2020 03:48 95K 
[   ]cob_omni_drive_controller.tag22-Mar-2020 03:48 90K 
[   ]cob_trajectory_controller.tag22-Mar-2020 03:48 51K 
[   ]cob_tricycle_controller.tag22-Mar-2020 03:48 21K 
[   ]cob_twist_controller.tag22-Mar-2020 03:48 376K 
[   ]freenect_camera.tag23-Mar-2020 04:42 60K 
[   ]freenect_launch.tag23-Mar-2020 04:42 78  
[   ]freenect_stack.tag23-Mar-2020 04:42 78  
[   ]omron_os32c_driver.tag25-Mar-2020 03:28 46K 
[   ]cob_hand.tag26-Mar-2020 03:16 78  
[   ]cob_hand_bridge.tag26-Mar-2020 03:16 1.2M 
[   ]remote_rosbag_record.tag27-Mar-2020 03:49 6.0K 
[   ]cloudwatch_metrics_collector.tag28-Mar-2020 03:12 49K 
[   ]ping360_sonar.tag28-Mar-2020 03:23 53K 
[   ]health_metric_collector.tag28-Mar-2020 04:00 31K 
[   ]sparse_bundle_adjustment.tag01-Apr-2020 03:18 132K 
[   ]cv_bridge.tag01-Apr-2020 03:20 142K 
[   ]image_geometry.tag01-Apr-2020 03:20 35K 
[   ]opencv_tests.tag01-Apr-2020 03:20 13K 
[   ]vision_opencv.tag01-Apr-2020 03:20 78  
[   ]easy_markers.tag02-Apr-2020 03:13 19K 
[   ]joy_listener.tag02-Apr-2020 03:13 4.8K 
[   ]kalman_filter.tag02-Apr-2020 03:13 3.3K 
[   ]rosbaglive.tag02-Apr-2020 03:13 6.5K 
[   ]wu_ros_tools.tag02-Apr-2020 03:13 78  
[   ]cloudwatch_logs_common.tag02-Apr-2020 03:28 111K 
[   ]cloudwatch_metrics_common.tag02-Apr-2020 03:28 69K 
[   ]dataflow_lite.tag02-Apr-2020 03:28 141K 
[   ]file_management.tag02-Apr-2020 03:28 82K 
[   ]swri_console.tag02-Apr-2020 03:31 76K 
[   ]co_scan.tag02-Apr-2020 03:42 9.6M 
[   ]srbot_description.tag02-Apr-2020 03:42 78  
[   ]virtual_scan.tag02-Apr-2020 03:42 17K 
[   ]pyquaternion.tag03-Apr-2020 03:10 93K 
[   ]random_numbers.tag03-Apr-2020 03:11 5.9K 
[   ]jsk_planning.tag03-Apr-2020 03:23 78  
[   ]pddl_msgs.tag03-Apr-2020 03:23 418  
[   ]pddl_planner.tag03-Apr-2020 03:23 26K 
[   ]pddl_planner_viewer.tag03-Apr-2020 03:23 5.1K 
[   ]task_compiler.tag03-Apr-2020 03:23 78  
[   ]pr2_gripper_sensor.tag03-Apr-2020 03:44 78  
[   ]pr2_gripper_sensor_action.tag03-Apr-2020 03:44 61K 
[   ]pr2_gripper_sensor_controller.tag03-Apr-2020 03:44 62K 
[   ]pr2_gripper_sensor_msgs.tag03-Apr-2020 03:44 785  
[   ]sbg_driver.tag03-Apr-2020 03:54 653K 
[   ]kdl_parser.tag03-Apr-2020 04:02 16K 
[   ]kdl_parser_py.tag03-Apr-2020 04:02 7.6K 
[   ]robot_state_publisher.tag05-Apr-2020 03:35 23K 
[   ]actionlib_tutorials.tag05-Apr-2020 03:57 17K 
[   ]common_tutorials.tag05-Apr-2020 03:57 78  
[   ]nodelet_tutorial_math.tag05-Apr-2020 03:57 2.4K 
[   ]pluginlib_tutorials.tag05-Apr-2020 03:57 6.8K 
[   ]turtle_actionlib.tag05-Apr-2020 03:57 7.2K 
[   ]camera_calibration_parsers.tag06-Apr-2020 03:31 21K 
[   ]camera_info_manager.tag06-Apr-2020 03:31 21K 
[   ]image_common.tag06-Apr-2020 03:31 78  
[   ]image_transport.tag06-Apr-2020 03:31 126K 
[   ]polled_camera.tag06-Apr-2020 03:31 8.6K 
[   ]rcdiscover.tag07-Apr-2020 03:53 138K 
[   ]rc_dynamics_api.tag07-Apr-2020 03:56 52K 
[   ]interactive_markers.tag07-Apr-2020 04:06 127K 
[   ]urdf_geometry_parser.tag08-Apr-2020 03:17 7.4K 
[   ]robosense_description.tag09-Apr-2020 03:23 78  
[   ]robosense_gazebo_plugins.tag09-Apr-2020 03:23 8.1K 
[   ]robosense_simulator.tag09-Apr-2020 03:23 78  
[   ]rqt_image_view.tag09-Apr-2020 03:30 24K 
[   ]ypspur_ros.tag09-Apr-2020 03:30 39K 
[   ]volksbot_driver.tag09-Apr-2020 04:04 13K 
[   ]autoware_can_msgs.tag12-Apr-2020 03:54 78  
[   ]autoware_config_msgs.tag12-Apr-2020 03:54 78  
[   ]autoware_external_msgs.tag12-Apr-2020 03:54 78  
[   ]autoware_lanelet2_msgs.tag12-Apr-2020 03:54 78  
[   ]autoware_map_msgs.tag12-Apr-2020 03:54 78  
[   ]autoware_msgs.tag12-Apr-2020 03:54 78  
[   ]autoware_system_msgs.tag12-Apr-2020 03:54 78  
[   ]tablet_socket_msgs.tag12-Apr-2020 03:54 78  
[   ]vector_map_msgs.tag12-Apr-2020 03:54 78  
[   ]jsk_roseus.tag14-Apr-2020 03:19 78  
[   ]roseus.tag14-Apr-2020 03:19 64K 
[   ]roseus_mongo.tag14-Apr-2020 03:19 78  
[   ]roseus_smach.tag14-Apr-2020 03:19 421  
[   ]orb_slam2_ros.tag14-Apr-2020 03:21 1.0M 
[   ]jason_hw_bridge.tag14-Apr-2020 03:41 12K 
[   ]jason_msgs.tag14-Apr-2020 03:41 78  
[   ]ethercat_trigger_controllers.tag15-Apr-2020 03:16 22K 
[   ]joint_trajectory_action.tag15-Apr-2020 03:16 7.6K 
[   ]pr2_calibration_controllers.tag15-Apr-2020 03:16 52K 
[   ]pr2_controllers.tag15-Apr-2020 03:16 78  
[   ]pr2_controllers_msgs.tag15-Apr-2020 03:16 366  
[   ]pr2_gripper_action.tag15-Apr-2020 03:16 6.9K 
[   ]pr2_head_action.tag15-Apr-2020 03:16 11K 
[   ]pr2_mechanism_controllers.tag15-Apr-2020 03:16 158K 
[   ]robot_mechanism_controllers.tag15-Apr-2020 03:16 114K 
[   ]single_joint_position_action.tag15-Apr-2020 03:16 6.6K 
[   ]octomap_mapping.tag15-Apr-2020 03:16 78  
[   ]octomap_server.tag15-Apr-2020 03:16 54K 
[   ]openrtm_aist.tag17-Apr-2020 03:11 3.8M 
[   ]opencv_apps.tag17-Apr-2020 03:40 335K 
[   ]navigation_layers.tag17-Apr-2020 03:51 78  
[   ]range_sensor_layer.tag17-Apr-2020 03:51 19K 
[   ]social_navigation_layers.tag17-Apr-2020 03:51 14K 
[   ]imu_monitor.tag18-Apr-2020 03:27 4.7K 
[   ]pr2_bringup.tag18-Apr-2020 03:27 20K 
[   ]pr2_camera_synchronizer.tag18-Apr-2020 03:27 67K 
[   ]pr2_computer_monitor.tag18-Apr-2020 03:27 59K 
[   ]pr2_controller_configuration.tag18-Apr-2020 03:27 78  
[   ]pr2_ethercat.tag18-Apr-2020 03:27 20K 
[   ]pr2_robot.tag18-Apr-2020 03:27 78  
[   ]pr2_run_stop_auto_restart.tag18-Apr-2020 03:27 1.1K 
[   ]rc_genicam_api.tag18-Apr-2020 03:41 2.2M 
[   ]control_msgs.tag18-Apr-2020 03:59 78  
[   ]realtime_tools.tag19-Apr-2020 03:42 40K 
[   ]rosserial.tag19-Apr-2020 04:02 78  
[   ]rosserial_arduino.tag19-Apr-2020 04:02 29K 
[   ]rosserial_client.tag19-Apr-2020 04:02 68K 
[   ]rosserial_embeddedlinux.tag19-Apr-2020 04:02 27K 
[   ]rosserial_mbed.tag19-Apr-2020 04:02 87K 
[   ]rosserial_msgs.tag19-Apr-2020 04:02 78  
[   ]rosserial_python.tag19-Apr-2020 04:02 36K 
[   ]rosserial_server.tag19-Apr-2020 04:02 88K 
[   ]rosserial_test.tag19-Apr-2020 04:02 11K 
[   ]rosserial_tivac.tag19-Apr-2020 04:02 25K 
[   ]rosserial_vex_cortex.tag19-Apr-2020 04:02 14K 
[   ]rosserial_vex_v5.tag19-Apr-2020 04:02 20K 
[   ]rosserial_windows.tag19-Apr-2020 04:02 10K 
[   ]rosserial_xbee.tag19-Apr-2020 04:02 76K 
[   ]moveit_python.tag25-Apr-2020 03:08 31K 
[   ]convex_decomposition.tag25-Apr-2020 03:12 396K 
[   ]laser_proc.tag25-Apr-2020 03:32 19K 
[   ]timed_roslaunch.tag26-Apr-2020 03:17 819  
[   ]warehouse_ros.tag26-Apr-2020 03:58 56K 
[   ]abb_driver.tag26-Apr-2020 04:00 6.8K 
[   ]ivcon.tag28-Apr-2020 03:42 99K 
[   ]mk.tag30-Apr-2020 06:30 2.3K 
[   ]ros.tag30-Apr-2020 06:30 78  
[   ]rosbash.tag30-Apr-2020 06:30 8.1K 
[   ]rosboost_cfg.tag30-Apr-2020 06:30 18K 
[   ]rosbuild.tag30-Apr-2020 06:30 2.1K 
[   ]rosclean.tag30-Apr-2020 06:30 11K 
[   ]roscreate.tag30-Apr-2020 06:30 8.2K 
[   ]roslang.tag30-Apr-2020 06:30 78  
[   ]roslib.tag30-Apr-2020 06:30 15K 
[   ]desktop.tag01-May-2020 03:38 78  
[   ]desktop_full.tag01-May-2020 03:38 78  
[   ]perception.tag01-May-2020 03:38 78  
[   ]robot.tag01-May-2020 03:38 78  
[   ]ros_base.tag01-May-2020 03:38 78  
[   ]ros_core.tag01-May-2020 03:38 78  
[   ]simulators.tag01-May-2020 03:38 78  
[   ]viz.tag01-May-2020 03:38 78  
[   ]video_stream_opencv.tag01-May-2020 03:51 19K 
[   ]ds4_driver.tag01-May-2020 03:59 25K 
[   ]mrpt_ekf_slam_2d.tag02-May-2020 03:10 18K 
[   ]mrpt_ekf_slam_3d.tag02-May-2020 03:10 17K 
[   ]mrpt_graphslam_2d.tag02-May-2020 03:10 182K 
[   ]mrpt_icp_slam_2d.tag02-May-2020 03:10 16K 
[   ]mrpt_rbpf_slam.tag02-May-2020 03:10 22K 
[   ]mrpt_slam.tag02-May-2020 03:10 78  
[   ]moveit_experimental.tag02-May-2020 03:52 48K 
[   ]uos_common_urdf.tag03-May-2020 03:09 78  
[   ]uos_diffdrive_teleop.tag03-May-2020 03:09 31K 
[   ]uos_freespace.tag03-May-2020 03:09 6.7K 
[   ]uos_gazebo_worlds.tag03-May-2020 03:09 78  
[   ]uos_maps.tag03-May-2020 03:09 78  
[   ]uos_tools.tag03-May-2020 03:09 78  
[   ]agni_tf_tools.tag03-May-2020 03:11 53K 
[   ]hector_components_description.tag03-May-2020 03:48 78  
[   ]hector_models.tag03-May-2020 03:48 78  
[   ]hector_sensors_description.tag03-May-2020 03:48 78  
[   ]hector_xacro_tools.tag03-May-2020 03:48 78  
[   ]json_msgs.tag03-May-2020 03:58 78  
[   ]json_transport.tag03-May-2020 03:58 281K 
[   ]eus_assimp.tag03-May-2020 04:02 11K 
[   ]eusurdf.tag03-May-2020 04:02 17K 
[   ]jsk_model_tools.tag03-May-2020 04:02 78  
[   ]usv_gazebo_plugins.tag05-May-2020 03:07 62K 
[   ]usv_msgs.tag05-May-2020 03:07 78  
[   ]vrx_gazebo.tag05-May-2020 03:07 154K 
[   ]wamv_description.tag05-May-2020 03:07 78  
[   ]wamv_gazebo.tag05-May-2020 03:07 78  
[   ]wave_gazebo.tag05-May-2020 03:07 78  
[   ]wave_gazebo_plugins.tag05-May-2020 03:07 64K 
[   ]mbf_recovery_behaviors.tag05-May-2020 03:33 78  
[   ]moveback_recovery.tag05-May-2020 03:33 9.7K 
[   ]jsk_common_msgs.tag05-May-2020 03:34 78  
[   ]jsk_footstep_msgs.tag05-May-2020 03:34 363  
[   ]jsk_gui_msgs.tag05-May-2020 03:34 358  
[   ]jsk_hark_msgs.tag05-May-2020 03:34 359  
[   ]posedetection_msgs.tag05-May-2020 03:34 8.7K 
[   ]speech_recognition_msgs.tag05-May-2020 03:34 78  
[   ]robot_pose_ekf.tag07-May-2020 03:23 57K 
[   ]grpc.tag08-May-2020 03:21 78  
[   ]moveit_pr2.tag08-May-2020 03:37 78  
[   ]pr2_moveit_config.tag08-May-2020 03:37 78  
[   ]pr2_moveit_plugins.tag08-May-2020 03:37 76K 
[   ]pr2_moveit_tests.tag08-May-2020 03:37 6.0K 
[   ]image_exposure_msgs.tag08-May-2020 04:02 78  
[   ]pointgrey_camera_description.tag08-May-2020 04:02 78  
[   ]pointgrey_camera_driver.tag08-May-2020 04:02 44K 
[   ]statistics_msgs.tag08-May-2020 04:02 78  
[   ]wfov_camera_msgs.tag08-May-2020 04:02 78  
[   ]combined_robot_hw.tag10-May-2020 03:15 5.0K 
[   ]combined_robot_hw_tests.tag10-May-2020 03:15 24K 
[   ]controller_interface.tag10-May-2020 03:15 28K 
[   ]controller_manager.tag10-May-2020 03:15 53K 
[   ]controller_manager_tests.tag10-May-2020 03:15 59K 
[   ]hardware_interface.tag10-May-2020 03:15 115K 
[   ]joint_limits_interface.tag10-May-2020 03:15 40K 
[   ]ros_control.tag10-May-2020 03:15 78  
[   ]rqt_controller_manager.tag10-May-2020 03:15 18K 
[   ]transmission_interface.tag10-May-2020 03:15 128K 
[   ]multimaster_fkie.tag10-May-2020 03:55 78  
[   ]multimaster_msgs_fkie.tag10-May-2020 03:55 433  
[   ]four_wheel_steering_msgs.tag15-May-2020 03:12 78  
[   ]geometry2.tag15-May-2020 03:14 78  
[   ]test_tf2.tag15-May-2020 03:14 27K 
[   ]tf2.tag15-May-2020 03:14 172K 
[   ]tf2_bullet.tag15-May-2020 03:14 5.0K 
[   ]tf2_eigen.tag15-May-2020 03:14 29K 
[   ]tf2_geometry_msgs.tag15-May-2020 03:14 58K 
[   ]tf2_kdl.tag15-May-2020 03:14 12K 
[   ]tf2_msgs.tag15-May-2020 03:14 348  
[   ]tf2_py.tag15-May-2020 03:14 13K 
[   ]tf2_ros.tag15-May-2020 03:14 65K 
[   ]tf2_sensor_msgs.tag15-May-2020 03:14 12K 
[   ]tf2_tools.tag15-May-2020 03:14 12K 
[   ]rqt_robot_dashboard.tag15-May-2020 03:17 45K 
[   ]omnibase_simulator.tag15-May-2020 03:17 78  
[   ]ackermann_steering_controller.tag15-May-2020 03:20 61K 
[   ]diff_drive_controller.tag15-May-2020 03:20 71K 
[   ]effort_controllers.tag15-May-2020 03:20 31K 
[   ]force_torque_sensor_controller.tag15-May-2020 03:20 5.0K 
[   ]forward_command_controller.tag15-May-2020 03:20 8.4K 
[   ]four_wheel_steering_controller.tag15-May-2020 03:20 61K 
[   ]gripper_action_controller.tag15-May-2020 03:20 27K 
[   ]imu_sensor_controller.tag15-May-2020 03:20 4.5K 
[   ]joint_state_controller.tag15-May-2020 03:20 4.9K 
[   ]joint_trajectory_controller.tag15-May-2020 03:20 110K 
[   ]position_controllers.tag15-May-2020 03:20 3.3K 
[   ]ros_controllers.tag15-May-2020 03:20 78  
[   ]velocity_controllers.tag15-May-2020 03:20 13K 
[   ]plotjuggler_msgs.tag15-May-2020 03:20 778  
[   ]hironx_calibration.tag15-May-2020 03:22 4.7K 
[   ]hironx_moveit_config.tag15-May-2020 03:22 7.3K 
[   ]hironx_ros_bridge.tag15-May-2020 03:22 320K 
[   ]rtmros_hironx.tag15-May-2020 03:22 78  
[   ]jsk_interactive.tag16-May-2020 03:45 387  
[   ]jsk_interactive_marker.tag16-May-2020 03:45 446K 
[   ]jsk_interactive_test.tag16-May-2020 03:45 4.2K 
[   ]jsk_rqt_plugins.tag16-May-2020 03:45 114K 
[   ]jsk_rviz_plugins.tag16-May-2020 03:45 701K 
[   ]jsk_visualization.tag16-May-2020 03:45 78  
[   ]interactive_marker_tutorials.tag16-May-2020 03:45 58K 
[   ]visualization_marker_tutorials.tag16-May-2020 03:45 1.0K 
[   ]visualization_tutorials.tag16-May-2020 03:45 78  
[   ]urdf_tutorial.tag16-May-2020 03:49 78  
[   ]ackermann_msgs.tag16-May-2020 03:52 344  
[   ]rospack.tag16-May-2020 03:53 63K 
[   ]seed_r7_bringup.tag16-May-2020 03:56 1.9K 
[   ]seed_r7_description.tag16-May-2020 03:56 78  
[   ]seed_r7_moveit_config.tag16-May-2020 03:56 78  
[   ]seed_r7_navigation.tag16-May-2020 03:56 6.7K 
[   ]seed_r7_robot_interface.tag16-May-2020 03:56 10K 
[   ]seed_r7_ros_controller.tag16-May-2020 03:56 63K 
[   ]seed_r7_ros_pkg.tag16-May-2020 03:56 78  
[   ]seed_r7_samples.tag16-May-2020 03:56 35K 
[   ]seed_r7_typef_moveit_config.tag16-May-2020 03:56 78  
[   ]seed_r7_typeg_moveit_config.tag16-May-2020 03:56 78  
[   ]costmap_converter.tag16-May-2020 03:56 100K 
[   ]rosbag_editor.tag17-May-2020 03:16 9.2K 
[   ]rqt_common_plugins.tag17-May-2020 03:16 78  
[   ]rqt_virtual_joy.tag17-May-2020 03:54 18K 
[   ]rqt_robot_plugins.tag17-May-2020 04:01 78  
[   ]rqt_joint_trajectory_plot.tag18-May-2020 03:30 21K 
[   ]jsk_pr2eus.tag18-May-2020 03:48 78  
[   ]pr2eus.tag18-May-2020 03:48 21K 
[   ]pr2eus_moveit.tag18-May-2020 03:48 354  
[   ]pr2eus_tutorials.tag18-May-2020 03:48 2.3K 
[   ]hector_compressed_map_transport.tag18-May-2020 04:01 5.1K 
[   ]hector_geotiff.tag18-May-2020 04:01 31K 
[   ]hector_geotiff_plugins.tag18-May-2020 04:01 4.7K 
[   ]hector_imu_attitude_to_tf.tag18-May-2020 04:01 2.9K 
[   ]hector_imu_tools.tag18-May-2020 04:01 6.9K 
[   ]hector_map_server.tag18-May-2020 04:01 6.4K 
[   ]hector_map_tools.tag18-May-2020 04:01 13K 
[   ]hector_mapping.tag18-May-2020 04:01 156K 
[   ]hector_marker_drawing.tag18-May-2020 04:01 8.7K 
[   ]hector_nav_msgs.tag18-May-2020 04:01 78  
[   ]hector_slam.tag18-May-2020 04:01 78  
[   ]hector_slam_launch.tag18-May-2020 04:01 78  
[   ]hector_trajectory_server.tag18-May-2020 04:01 7.3K 
[   ]crazyflie.tag20-May-2020 03:51 78  
[   ]crazyflie_controller.tag20-May-2020 03:51 13K 
[   ]crazyflie_cpp.tag20-May-2020 03:51 282K 
[   ]crazyflie_demo.tag20-May-2020 03:51 88K 
[   ]crazyflie_description.tag20-May-2020 03:51 78  
[   ]crazyflie_driver.tag20-May-2020 03:51 37K 
[   ]crazyflie_tools.tag20-May-2020 03:51 83K 
[   ]geodesy.tag21-May-2020 03:10 38K 
[   ]geographic_info.tag21-May-2020 03:10 78  
[   ]geographic_msgs.tag21-May-2020 03:10 361  
[   ]gazebo_dev.tag21-May-2020 03:47 78  
[   ]gazebo_msgs.tag21-May-2020 03:47 78  
[   ]gazebo_plugins.tag21-May-2020 03:47 373K 
[   ]gazebo_ros.tag21-May-2020 03:47 51K 
[   ]gazebo_ros_control.tag21-May-2020 03:47 29K 
[   ]gazebo_ros_pkgs.tag21-May-2020 03:47 78  
[   ]xaxxon_openlidar.tag22-May-2020 03:13 25K 
[   ]turtlebot3.tag23-May-2020 03:20 78  
[   ]turtlebot3_bringup.tag23-May-2020 03:20 7.7K 
[   ]turtlebot3_description.tag23-May-2020 03:20 78  
[   ]turtlebot3_example.tag23-May-2020 03:20 1.2K 
[   ]turtlebot3_navigation.tag23-May-2020 03:20 78  
[   ]turtlebot3_slam.tag23-May-2020 03:20 3.3K 
[   ]turtlebot3_teleop.tag23-May-2020 03:20 1.2K 
[   ]rqt_console.tag23-May-2020 03:43 92K 
[   ]rqt_logger_level.tag23-May-2020 03:50 10K 
[   ]rqt_graph.tag23-May-2020 03:56 36K 
[   ]moveit_msgs.tag24-May-2020 03:40 787  
[   ]pybind11_catkin.tag25-May-2020 03:30 250  
[   ]roslisp.tag25-May-2020 03:59 31K 
[   ]geometric_shapes.tag26-May-2020 03:13 166K 
[   ]gps_common.tag26-May-2020 03:44 18K 
[   ]gps_umd.tag26-May-2020 03:44 78  
[   ]gpsd_client.tag26-May-2020 03:44 5.0K 
[   ]mbf_abstract_core.tag27-May-2020 04:03 7.7K 
[   ]mbf_abstract_nav.tag27-May-2020 04:03 145K 
[   ]mbf_costmap_core.tag27-May-2020 04:03 8.5K 
[   ]mbf_costmap_nav.tag27-May-2020 04:03 56K 
[   ]mbf_msgs.tag27-May-2020 04:03 78  
[   ]mbf_simple_nav.tag27-May-2020 04:03 6.3K 
[   ]mbf_utility.tag27-May-2020 04:03 12K 
[   ]move_base_flex.tag27-May-2020 04:03 78  
[   ]urdfdom_py.tag28-May-2020 03:11 132K 
[   ]hebi_cpp_api.tag28-May-2020 03:32 620K 
[   ]cob_extern.tag28-May-2020 03:57 78  
[   ]libdlib.tag28-May-2020 03:57 78  
[   ]libntcan.tag28-May-2020 03:57 36K 
[   ]libpcan.tag28-May-2020 03:57 78  
[   ]libphidgets.tag28-May-2020 03:57 78  
[   ]opengm.tag28-May-2020 03:57 78  
[   ]raspimouse_description.tag28-May-2020 04:01 78  
[   ]ros_type_introspection.tag01-Jun-2020 03:26 175K 
[   ]catch_ros.tag01-Jun-2020 03:54 289K 
[   ]urdf_sim_tutorial.tag01-Jun-2020 04:08 78  
[   ]rqt_tf_tree.tag02-Jun-2020 03:17 14K 
[   ]moveit_opw_kinematics_plugin.tag02-Jun-2020 03:20 112K 
[   ]audio_to_spectrogram.tag02-Jun-2020 03:20 9.5K 
[   ]checkerboard_detector.tag02-Jun-2020 03:20 112K 
[   ]imagesift.tag02-Jun-2020 03:20 11K 
[   ]jsk_pcl_ros.tag02-Jun-2020 03:20 1.4M 
[   ]jsk_pcl_ros_utils.tag02-Jun-2020 03:20 378K 
[   ]jsk_perception.tag02-Jun-2020 03:20 967K 
[   ]jsk_recognition.tag02-Jun-2020 03:20 78  
[   ]jsk_recognition_msgs.tag02-Jun-2020 03:20 17K 
[   ]jsk_recognition_utils.tag02-Jun-2020 03:20 422K 
[   ]resized_image_transport.tag02-Jun-2020 03:20 36K 
[   ]rqt_shell.tag02-Jun-2020 03:24 19K 
[   ]rqt_runtime_monitor.tag02-Jun-2020 03:42 17K 
[   ]rqt_rviz.tag02-Jun-2020 03:48 9.4K 
[   ]rqt_web.tag02-Jun-2020 03:48 11K 
[   ]odom_frame_publisher.tag02-Jun-2020 03:56 7.4K 
[   ]leap_motion.tag02-Jun-2020 03:58 614K 
[   ]rqt_service_caller.tag03-Jun-2020 03:04 11K 
[   ]rqt_dep.tag03-Jun-2020 03:09 28K 
[   ]rqt_pose_view.tag03-Jun-2020 03:09 20K 
[   ]rqt_robot_monitor.tag03-Jun-2020 03:10 58K 
[   ]rqt_py_console.tag03-Jun-2020 03:14 13K 
[   ]rqt_topic.tag03-Jun-2020 03:18 18K 
[   ]csm.tag03-Jun-2020 03:31 509K 
[   ]rqt_top.tag03-Jun-2020 03:34 13K 
[   ]cv_camera.tag03-Jun-2020 03:36 19K 
[   ]rqt_publisher.tag03-Jun-2020 03:37 24K 
[   ]rosapi.tag03-Jun-2020 03:46 25K 
[   ]rosbridge_library.tag03-Jun-2020 03:46 321K 
[   ]rosbridge_msgs.tag03-Jun-2020 03:46 78  
[   ]rosbridge_server.tag03-Jun-2020 03:46 82K 
[   ]rosbridge_suite.tag03-Jun-2020 03:46 78  
[   ]rqt_bag.tag03-Jun-2020 03:46 157K 
[   ]rqt_bag_plugins.tag03-Jun-2020 03:46 31K 
[   ]rqt_msg.tag03-Jun-2020 03:51 10K 
[   ]openni2_camera.tag03-Jun-2020 03:52 96K 
[   ]rqt_srv.tag03-Jun-2020 03:55 3.4K 
[   ]rqt_robot_steering.tag03-Jun-2020 04:02 15K 
[   ]spatio_temporal_voxel_layer.tag03-Jun-2020 04:05 80K 
[   ]rqt_moveit.tag04-Jun-2020 03:19 16K 
[   ]imu_pipeline.tag04-Jun-2020 03:53 78  
[   ]imu_processors.tag04-Jun-2020 03:53 6.0K 
[   ]imu_transformer.tag04-Jun-2020 03:53 17K 
[   ]rqt_launch.tag04-Jun-2020 04:12 39K 
[   ]control_toolbox.tag05-Jun-2020 03:12 44K 
[   ]simple_desktop_launcher.tag05-Jun-2020 03:15 78  
[   ]twist_mux.tag05-Jun-2020 03:15 76K 
[   ]ublox.tag05-Jun-2020 03:38 78  
[   ]ublox_gps.tag05-Jun-2020 03:38 122K 
[   ]ublox_msgs.tag05-Jun-2020 03:38 113K 
[   ]ublox_serialization.tag05-Jun-2020 03:38 17K 
[   ]fanuc_post_processor.tag05-Jun-2020 03:50 127K 
[   ]hrpsys.tag05-Jun-2020 03:52 2.4M 
[   ]control_box_rst.tag06-Jun-2020 03:21 16M 
[   ]robot_calibration.tag06-Jun-2020 03:29 135K 
[   ]robot_calibration_msgs.tag06-Jun-2020 03:29 78  
[   ]usb_cam.tag06-Jun-2020 03:51 36K 
[   ]nmea_to_geopose.tag07-Jun-2020 03:08 6.3K 
[   ]joy_teleop.tag07-Jun-2020 03:17 13K 
[   ]key_teleop.tag07-Jun-2020 03:17 14K 
[   ]mouse_teleop.tag07-Jun-2020 03:17 12K 
[   ]teleop_tools.tag07-Jun-2020 03:17 78  
[   ]teleop_tools_msgs.tag07-Jun-2020 03:17 78  
[   ]industrial_robot_angle_conversions.tag07-Jun-2020 03:38 11K 
[   ]ros_robodk_post_processors.tag07-Jun-2020 03:50 1.5M 
[   ]husky_cartographer_navigation.tag09-Jun-2020 03:15 78  
[   ]urg_c.tag09-Jun-2020 03:50 120K 
[   ]octomap_pa.tag10-Jun-2020 03:20 113K 
[   ]pcdfilter_pa.tag10-Jun-2020 03:20 47K 
[   ]rviz_visual_tools.tag10-Jun-2020 03:54 135K 
[   ]haf_grasping.tag11-Jun-2020 03:09 228K 
[   ]parameter_pa.tag11-Jun-2020 03:19 11K 
[   ]avt_vimba_camera.tag11-Jun-2020 03:21 455K 
[   ]staubli_val3_driver.tag11-Jun-2020 03:52 78  
[   ]aruco_detect.tag12-Jun-2020 03:52 27K 
[   ]fiducial_msgs.tag12-Jun-2020 03:52 78  
[   ]fiducial_slam.tag12-Jun-2020 03:52 66K 
[   ]fiducials.tag12-Jun-2020 03:52 78  
[   ]rosparam_shortcuts.tag12-Jun-2020 03:59 18K 
[   ]marti_can_msgs.tag13-Jun-2020 03:09 359  
[   ]marti_common_msgs.tag13-Jun-2020 03:09 78  
[   ]marti_dbw_msgs.tag13-Jun-2020 03:09 6.5K 
[   ]marti_nav_msgs.tag13-Jun-2020 03:09 359  
[   ]marti_perception_msgs.tag13-Jun-2020 03:09 366  
[   ]marti_sensor_msgs.tag13-Jun-2020 03:09 362  
[   ]marti_status_msgs.tag13-Jun-2020 03:09 78  
[   ]marti_visualization_msgs.tag13-Jun-2020 03:09 78  
[   ]moveit_sim_controller.tag13-Jun-2020 03:34 6.7K 
[   ]rqt.tag13-Jun-2020 03:49 78  
[   ]rqt_gui.tag13-Jun-2020 03:49 10K 
[   ]rqt_gui_cpp.tag13-Jun-2020 03:49 14K 
[   ]rqt_gui_py.tag13-Jun-2020 03:49 6.2K 
[   ]rqt_py_common.tag13-Jun-2020 03:49 72K 
[   ]python_qt_binding.tag14-Jun-2020 03:43 22K 
[   ]rqt_bag_exporter.tag14-Jun-2020 03:47 39K 
[   ]simple_node.tag14-Jun-2020 03:48 1.1K 
[   ]simple_rviz_plugin.tag14-Jun-2020 03:48 5.7K 
[   ]rr_openrover_navigation.tag15-Jun-2020 03:11 78  
[   ]leo_description.tag15-Jun-2020 03:22 78  
[   ]graph_rviz_plugin.tag15-Jun-2020 03:24 842K 
[   ]graph_msgs.tag15-Jun-2020 03:28 78  
[   ]rqt_reconfigure.tag15-Jun-2020 03:30 106K 
[   ]flexbe_behavior_engine.tag15-Jun-2020 03:33 78  
[   ]flexbe_core.tag15-Jun-2020 03:33 128K 
[   ]flexbe_input.tag15-Jun-2020 03:33 12K 
[   ]flexbe_mirror.tag15-Jun-2020 03:33 13K 
[   ]flexbe_msgs.tag15-Jun-2020 03:33 78  
[   ]flexbe_onboard.tag15-Jun-2020 03:33 17K 
[   ]flexbe_states.tag15-Jun-2020 03:33 36K 
[   ]flexbe_testing.tag15-Jun-2020 03:33 25K 
[   ]flexbe_widget.tag15-Jun-2020 03:33 12K 
[   ]ifopt.tag16-Jun-2020 03:15 62K 
[   ]urg_node.tag17-Jun-2020 03:53 47K 
[   ]trac_ik.tag17-Jun-2020 03:54 78  
[   ]trac_ik_examples.tag17-Jun-2020 03:54 1.1K 
[   ]trac_ik_kinematics_plugin.tag17-Jun-2020 03:54 10K 
[   ]trac_ik_lib.tag17-Jun-2020 03:54 122K 
[   ]trac_ik_python.tag17-Jun-2020 03:54 23K 
[   ]sick_tim.tag17-Jun-2020 03:58 59K 
[   ]imu_complementary_filter.tag18-Jun-2020 03:21 33K 
[   ]imu_filter_madgwick.tag18-Jun-2020 03:21 41K 
[   ]imu_tools.tag18-Jun-2020 03:21 78  
[   ]uuv_assistants.tag18-Jun-2020 03:25 56K 
[   ]uuv_auv_control_allocator.tag18-Jun-2020 03:25 11K 
[   ]uuv_control_cascaded_pid.tag18-Jun-2020 03:25 23K 
[   ]uuv_control_msgs.tag18-Jun-2020 03:25 78  
[   ]uuv_control_utils.tag18-Jun-2020 03:25 52K 
[   ]uuv_descriptions.tag18-Jun-2020 03:25 2.4K 
[   ]uuv_gazebo.tag18-Jun-2020 03:25 78  
[   ]uuv_gazebo_plugins.tag18-Jun-2020 03:25 148K 
[   ]uuv_gazebo_ros_plugins.tag18-Jun-2020 03:25 65K 
[   ]uuv_gazebo_ros_plugins_msgs.tag18-Jun-2020 03:25 78  
[   ]uuv_gazebo_worlds.tag18-Jun-2020 03:25 78  
[   ]uuv_sensor_ros_plugins.tag18-Jun-2020 03:25 97K 
[   ]uuv_sensor_ros_plugins_msgs.tag18-Jun-2020 03:25 78  
[   ]uuv_simulator.tag18-Jun-2020 03:25 78  
[   ]uuv_teleop.tag18-Jun-2020 03:25 16K 
[   ]uuv_thruster_manager.tag18-Jun-2020 03:25 37K 
[   ]uuv_trajectory_control.tag18-Jun-2020 03:25 267K 
[   ]uuv_tutorial_disturbances.tag18-Jun-2020 03:25 78  
[   ]uuv_tutorial_dp_controller.tag18-Jun-2020 03:25 3.8K 
[   ]uuv_tutorial_seabed_world.tag18-Jun-2020 03:25 78  
[   ]uuv_tutorials.tag18-Jun-2020 03:25 78  
[   ]uuv_world_plugins.tag18-Jun-2020 03:25 11K 
[   ]uuv_world_ros_plugins.tag18-Jun-2020 03:25 13K 
[   ]uuv_world_ros_plugins_msgs.tag18-Jun-2020 03:25 78  
[   ]basler_tof.tag18-Jun-2020 03:37 5.7K 
[   ]towr.tag18-Jun-2020 03:44 285K 
[   ]towr_ros.tag18-Jun-2020 03:44 36K 
[   ]rosbag_fancy.tag18-Jun-2020 04:02 64K 
[   ]sick_safetyscanners.tag18-Jun-2020 04:05 618K 
[   ]asr_halcon_bridge.tag19-Jun-2020 03:17 14K 
[   ]turtlebot3_msgs.tag19-Jun-2020 03:28 78  
[   ]nextage_calibration.tag20-Jun-2020 03:29 1.7K 
[   ]nextage_description.tag20-Jun-2020 03:29 78  
[   ]nextage_gazebo.tag20-Jun-2020 03:29 7.9K 
[   ]nextage_ik_plugin.tag20-Jun-2020 03:29 271K 
[   ]nextage_moveit_config.tag20-Jun-2020 03:29 14K 
[   ]nextage_ros_bridge.tag20-Jun-2020 03:29 148K 
[   ]rtmros_nextage.tag20-Jun-2020 03:29 78  
[   ]sick_ldmrs_description.tag20-Jun-2020 03:59 78  
[   ]sick_ldmrs_driver.tag20-Jun-2020 03:59 8.7K 
[   ]sick_ldmrs_laser.tag20-Jun-2020 03:59 78  
[   ]sick_ldmrs_msgs.tag20-Jun-2020 03:59 5.3K 
[   ]sick_ldmrs_tools.tag20-Jun-2020 03:59 17K 
[   ]assisted_teleop.tag21-Jun-2020 03:55 8.5K 
[   ]goal_passer.tag21-Jun-2020 03:55 2.0K 
[   ]navigation_experimental.tag21-Jun-2020 03:55 78  
[   ]pose_base_controller.tag21-Jun-2020 03:55 13K 
[   ]pose_follower.tag21-Jun-2020 03:55 14K 
[   ]sbpl_lattice_planner.tag21-Jun-2020 03:55 14K 
[   ]sbpl_recovery.tag21-Jun-2020 03:55 7.4K 
[   ]twist_recovery.tag21-Jun-2020 03:55 11K 
[   ]leo_viz.tag21-Jun-2020 03:59 78  
[   ]rosbag_snapshot.tag25-Jun-2020 03:13 36K 
[   ]rosbag_snapshot_msgs.tag25-Jun-2020 03:13 78  
[   ]libphidget21.tag25-Jun-2020 03:18 78  
[   ]phidgets_api.tag25-Jun-2020 03:18 36K 
[   ]phidgets_drivers.tag25-Jun-2020 03:18 78  
[   ]phidgets_high_speed_encoder.tag25-Jun-2020 03:18 11K 
[   ]phidgets_ik.tag25-Jun-2020 03:18 9.0K 
[   ]phidgets_imu.tag25-Jun-2020 03:18 17K 
[   ]phidgets_msgs.tag25-Jun-2020 03:18 78  
[   ]ur_msgs.tag25-Jun-2020 03:28 78  
[   ]moveit_jog_arm.tag26-Jun-2020 03:56 82K 
[   ]urg_stamped.tag27-Jun-2020 03:13 92K 
[   ]teleop_twist_keyboard.tag27-Jun-2020 03:45 13K 
[   ]zivid_camera.tag27-Jun-2020 04:04 43K 
[   ]zivid_samples.tag27-Jun-2020 04:04 9.2K 
[   ]srdfdom.tag01-Jul-2020 03:14 57K 
[   ]orocos_kdl.tag01-Jul-2020 03:17 1.0M 
[   ]mir_actions.tag01-Jul-2020 03:18 78  
[   ]mir_description.tag01-Jul-2020 03:18 78  
[   ]mir_driver.tag01-Jul-2020 03:18 25K 
[   ]mir_dwb_critics.tag01-Jul-2020 03:18 12K 
[   ]mir_gazebo.tag01-Jul-2020 03:18 78  
[   ]mir_msgs.tag01-Jul-2020 03:18 78  
[   ]mir_navigation.tag01-Jul-2020 03:18 16K 
[   ]mir_robot.tag01-Jul-2020 03:18 78  
[   ]sdc21x0.tag01-Jul-2020 03:18 78  
[   ]hdf5_map_io.tag02-Jul-2020 03:12 18K 
[   ]label_manager.tag02-Jul-2020 03:12 6.9K 
[   ]mesh_msgs.tag02-Jul-2020 03:12 78  
[   ]mesh_msgs_hdf5.tag02-Jul-2020 03:12 13K 
[   ]mesh_msgs_transform.tag02-Jul-2020 03:12 7.0K 
[   ]mesh_tools.tag02-Jul-2020 03:12 78  
[   ]rviz_map_plugin.tag02-Jul-2020 03:12 89K 
[   ]rviz_mesh_plugin.tag02-Jul-2020 03:12 92K 
[   ]hrpsys_tools.tag02-Jul-2020 03:57 10K 
[   ]openrtm_tools.tag02-Jul-2020 03:57 13K 
[   ]rtmbuild.tag02-Jul-2020 03:57 27K 
[   ]rtmros_common.tag02-Jul-2020 03:57 78  
[   ]datmo.tag02-Jul-2020 03:58 41K 
[   ]rc_common_msgs.tag03-Jul-2020 03:20 352  
[   ]exotica.tag03-Jul-2020 03:50 78  
[   ]exotica_aico_solver.tag03-Jul-2020 03:50 52K 
[   ]exotica_cartpole_dynamics_solver.tag03-Jul-2020 03:50 17K 
[   ]exotica_collision_scene_fcl.tag03-Jul-2020 03:51 8.6K 
[   ]exotica_collision_scene_fcl_latest.tag03-Jul-2020 03:51 19K 
[   ]exotica_core.tag03-Jul-2020 03:51 668K 
[   ]exotica_core_task_maps.tag03-Jul-2020 03:51 148K 
[   ]exotica_ddp_solver.tag03-Jul-2020 03:51 39K 
[   ]exotica_double_integrator_dynamics_solver.tag03-Jul-2020 03:51 3.9K 
[   ]exotica_dynamics_solvers.tag03-Jul-2020 03:51 78  
[   ]exotica_examples.tag03-Jul-2020 03:51 33K 
[   ]exotica_ik_solver.tag03-Jul-2020 03:51 8.5K 
[   ]exotica_ilqg_solver.tag03-Jul-2020 03:51 4.8K 
[   ]exotica_ilqr_solver.tag03-Jul-2020 03:51 5.4K 
[   ]exotica_levenberg_marquardt_solver.tag03-Jul-2020 03:51 2.5K 
[   ]exotica_ompl_control_solver.tag03-Jul-2020 03:51 10K 
[   ]exotica_ompl_solver.tag03-Jul-2020 03:51 56K 
[   ]exotica_pendulum_dynamics_solver.tag03-Jul-2020 03:51 9.2K 
[   ]exotica_pinocchio_dynamics_solver.tag03-Jul-2020 03:51 9.6K 
[   ]exotica_python.tag03-Jul-2020 03:51 66K 
[   ]exotica_quadrotor_dynamics_solver.tag03-Jul-2020 03:51 33K 
[   ]exotica_scipy_solver.tag03-Jul-2020 03:51 11K 
[   ]exotica_time_indexed_rrt_connect_solver.tag03-Jul-2020 03:51 25K 
[   ]moveit_resources.tag03-Jul-2020 03:54 78  
[   ]multi_object_tracking_lidar.tag03-Jul-2020 03:57 22K 
[   ]mobile_robot_simulator.tag03-Jul-2020 04:06 23K 
[   ]mongodb_log.tag04-Jul-2020 03:46 52K 
[   ]mongodb_store_msgs.tag04-Jul-2020 03:46 78  
[   ]octomap_msgs.tag04-Jul-2020 03:46 5.3K 
[   ]cloudwatch_logger.tag04-Jul-2020 03:48 57K 
[   ]costmap_queue.tag04-Jul-2020 03:51 22K 
[   ]dlux_global_planner.tag04-Jul-2020 03:51 42K 
[   ]dlux_plugins.tag04-Jul-2020 03:51 31K 
[   ]dwb_critics.tag04-Jul-2020 03:51 43K 
[   ]dwb_local_planner.tag04-Jul-2020 03:51 51K 
[   ]dwb_msgs.tag04-Jul-2020 03:51 78  
[   ]dwb_plugins.tag04-Jul-2020 03:51 53K 
[   ]global_planner_tests.tag04-Jul-2020 03:51 20K 
[   ]locomotor.tag04-Jul-2020 03:51 68K 
[   ]locomotor_msgs.tag04-Jul-2020 03:51 78  
[   ]locomove_base.tag04-Jul-2020 03:51 21K 
[   ]nav_2d_msgs.tag04-Jul-2020 03:51 78  
[   ]nav_2d_utils.tag04-Jul-2020 03:51 65K 
[   ]nav_core2.tag04-Jul-2020 03:51 43K 
[   ]nav_core_adapter.tag04-Jul-2020 03:51 22K 
[   ]nav_grid.tag04-Jul-2020 03:51 28K 
[   ]nav_grid_iterators.tag04-Jul-2020 03:51 135K 
[   ]nav_grid_pub_sub.tag04-Jul-2020 03:51 65K 
[   ]robot_navigation.tag04-Jul-2020 03:51 78  
[   ]pr2_controller_interface.tag04-Jul-2020 03:53 13K 
[   ]pr2_controller_manager.tag04-Jul-2020 03:53 50K 
[   ]pr2_hardware_interface.tag04-Jul-2020 03:53 51K 
[   ]pr2_mechanism.tag04-Jul-2020 03:53 78  
[   ]pr2_mechanism_diagnostics.tag04-Jul-2020 03:53 30K 
[   ]pr2_mechanism_model.tag04-Jul-2020 03:53 96K 
[   ]pid.tag04-Jul-2020 03:59 56K 
[   ]fetch_auto_dock_msgs.tag06-Jul-2020 03:55 78  
[   ]fetch_driver_msgs.tag06-Jul-2020 03:55 78  
[   ]xacro.tag07-Jul-2020 03:48 77K 
[   ]panda_moveit_config.tag07-Jul-2020 03:56 78  
[   ]dataspeed_can.tag08-Jul-2020 03:16 78  
[   ]dataspeed_can_msg_filters.tag08-Jul-2020 03:16 30K 
[   ]dataspeed_can_tools.tag08-Jul-2020 03:16 46K 
[   ]dataspeed_can_usb.tag08-Jul-2020 03:16 64K 
[   ]dataspeed_ulc.tag08-Jul-2020 03:21 78  
[   ]dataspeed_ulc_can.tag08-Jul-2020 03:21 47K 
[   ]dataspeed_ulc_msgs.tag08-Jul-2020 03:21 78  
[   ]robot_controllers.tag09-Jul-2020 03:44 113K 
[   ]robot_controllers_interface.tag09-Jul-2020 03:44 39K 
[   ]robot_controllers_msgs.tag09-Jul-2020 03:44 78  
[   ]ros_emacs_utils.tag09-Jul-2020 03:59 78  
[   ]rosemacs.tag09-Jul-2020 03:59 78  
[   ]roslisp_repl.tag09-Jul-2020 03:59 78  
[   ]slime_ros.tag09-Jul-2020 03:59 78  
[   ]slime_wrapper.tag09-Jul-2020 03:59 78  
[   ]bond.tag09-Jul-2020 04:04 409  
[   ]bond_core.tag09-Jul-2020 04:04 78  
[   ]bondcpp.tag09-Jul-2020 04:04 38K 
[   ]bondpy.tag09-Jul-2020 04:04 33K 
[   ]smclib.tag09-Jul-2020 04:04 31K 
[   ]test_bond.tag09-Jul-2020 04:04 38K 
[   ]nmc_nlp_lite.tag10-Jul-2020 03:31 14K 
[   ]rospy_message_converter.tag10-Jul-2020 03:34 42K 
[   ]lusb.tag10-Jul-2020 03:35 20K 
[   ]auv_msgs.tag10-Jul-2020 03:47 78  
[   ]librealsense2.tag10-Jul-2020 03:49 25M 
[   ]behaviortree_cpp_v3.tag10-Jul-2020 03:59 894K 
[   ]lvr2.tag11-Jul-2020 03:14 4.1M 
[   ]chomp_motion_planner.tag11-Jul-2020 03:53 59K 
[   ]moveit.tag11-Jul-2020 03:53 7.1K 
[   ]moveit_chomp_optimizer_adapter.tag11-Jul-2020 03:53 2.6K 
[   ]moveit_commander.tag11-Jul-2020 03:53 100K 
[   ]moveit_controller_manager_example.tag11-Jul-2020 03:53 7.4K 
[   ]moveit_core.tag11-Jul-2020 03:53 1.3M 
[   ]moveit_fake_controller_manager.tag11-Jul-2020 03:53 20K 
[   ]moveit_kinematics.tag11-Jul-2020 03:53 211K 
[   ]moveit_planners.tag11-Jul-2020 03:53 78  
[   ]moveit_planners_chomp.tag11-Jul-2020 03:53 14K 
[   ]moveit_planners_ompl.tag11-Jul-2020 03:53 223K 
[   ]moveit_plugins.tag11-Jul-2020 03:53 78  
[   ]moveit_ros.tag11-Jul-2020 03:53 78  
[   ]moveit_ros_benchmarks.tag11-Jul-2020 03:53 51K 
[   ]moveit_ros_control_interface.tag11-Jul-2020 03:53 19K 
[   ]moveit_ros_manipulation.tag11-Jul-2020 03:53 68K 
[   ]moveit_ros_move_group.tag11-Jul-2020 03:53 63K 
[   ]moveit_ros_occupancy_map_monitor.tag11-Jul-2020 03:53 32K 
[   ]moveit_ros_perception.tag11-Jul-2020 03:53 149K 
[   ]moveit_ros_planning.tag11-Jul-2020 03:53 250K 
[   ]moveit_ros_planning_interface.tag11-Jul-2020 03:53 241K 
[   ]moveit_ros_robot_interaction.tag11-Jul-2020 03:53 100K 
[   ]moveit_ros_visualization.tag11-Jul-2020 03:53 307K 
[   ]moveit_ros_warehouse.tag11-Jul-2020 03:53 68K 
[   ]moveit_runtime.tag11-Jul-2020 03:53 78  
[   ]moveit_servo.tag11-Jul-2020 03:53 81K 
[   ]moveit_setup_assistant.tag11-Jul-2020 03:53 284K 
[   ]moveit_simple_controller_manager.tag11-Jul-2020 03:53 36K 
[   ]pr2_app_manager.tag11-Jul-2020 04:00 4.9K 
[   ]pr2_apps.tag11-Jul-2020 04:00 78  
[   ]pr2_mannequin_mode.tag11-Jul-2020 04:00 1.8K 
[   ]pr2_position_scripts.tag11-Jul-2020 04:00 12K 
[   ]pr2_teleop.tag11-Jul-2020 04:00 26K 
[   ]pr2_teleop_general.tag11-Jul-2020 04:00 85K 
[   ]pr2_tuckarm.tag11-Jul-2020 04:00 1.6K 
[   ]tf2_server.tag12-Jul-2020 03:12 34K 
[   ]rosbag_pandas.tag12-Jul-2020 03:28 18K 
[   ]sainsmart_relay_usb.tag12-Jul-2020 03:53 6.4K 
[   ]laser_scan_publisher_tutorial.tag12-Jul-2020 04:04 557  
[   ]navigation_stage.tag12-Jul-2020 04:04 78  
[   ]navigation_tutorials.tag12-Jul-2020 04:04 78  
[   ]odometry_publisher_tutorial.tag12-Jul-2020 04:04 547  
[   ]point_cloud_publisher_tutorial.tag12-Jul-2020 04:04 561  
[   ]robot_setup_tf_tutorial.tag12-Jul-2020 04:04 1.2K 
[   ]roomba_stage.tag12-Jul-2020 04:04 78  
[   ]simple_navigation_goals_tutorial.tag12-Jul-2020 04:04 1.1K 
[   ]rtabmap_ros.tag12-Jul-2020 04:07 587K 
[   ]usb_cam_controllers.tag14-Jul-2020 03:17 31K 
[   ]usb_cam_hardware.tag14-Jul-2020 03:17 10K 
[   ]usb_cam_hardware_interface.tag14-Jul-2020 03:17 4.7K 
[   ]rtabmap.tag14-Jul-2020 03:33 7.2M 
[   ]pr2_common.tag15-Jul-2020 03:32 78  
[   ]pr2_dashboard_aggregator.tag15-Jul-2020 03:32 4.7K 
[   ]pr2_description.tag15-Jul-2020 03:32 1.6K 
[   ]pr2_machine.tag15-Jul-2020 03:32 78  
[   ]pr2_msgs.tag15-Jul-2020 03:32 78  
[   ]mqtt_bridge.tag15-Jul-2020 03:35 18K 
[   ]hls_lfcd_lds_driver.tag15-Jul-2020 03:41 15K 
[   ]laser_geometry.tag15-Jul-2020 03:54 30K 
[   ]collada_parser.tag15-Jul-2020 03:55 44K 
[   ]collada_urdf.tag15-Jul-2020 03:55 56K 
[   ]apriltag_ros.tag16-Jul-2020 03:07 27K 
[   ]teb_local_planner.tag16-Jul-2020 03:26 444K 
[   ]novatel_gps_driver.tag16-Jul-2020 03:35 249K 
[   ]novatel_gps_msgs.tag16-Jul-2020 03:35 78  
[   ]catkin_virtualenv.tag16-Jul-2020 03:38 14K 
[   ]test_catkin_virtualenv.tag16-Jul-2020 03:38 1.1K 
[   ]test_catkin_virtualenv_inherited.tag16-Jul-2020 03:38 503  
[   ]test_catkin_virtualenv_py3.tag16-Jul-2020 03:38 1.1K 
[   ]test_catkin_virtualenv_py3_isolated.tag16-Jul-2020 03:38 1.1K 
[   ]app_manager.tag16-Jul-2020 03:58 72K 
[   ]actionlib_lisp.tag17-Jul-2020 03:41 78  
[   ]cl_tf.tag17-Jul-2020 03:41 78  
[   ]cl_tf2.tag17-Jul-2020 03:41 78  
[   ]cl_transforms.tag17-Jul-2020 03:41 78  
[   ]cl_transforms_stamped.tag17-Jul-2020 03:41 78  
[   ]cl_urdf.tag17-Jul-2020 03:41 78  
[   ]cl_utils.tag17-Jul-2020 03:41 78  
[   ]roslisp_common.tag17-Jul-2020 03:41 78  
[   ]roslisp_utilities.tag17-Jul-2020 03:41 78  
[   ]slam_karto.tag17-Jul-2020 03:58 13K 
[   ]marti_data_structures.tag18-Jul-2020 03:15 18K 
[   ]swri_console_util.tag18-Jul-2020 03:15 6.3K 
[   ]swri_dbw_interface.tag18-Jul-2020 03:15 6.6K 
[   ]swri_geometry_util.tag18-Jul-2020 03:15 30K 
[   ]swri_image_util.tag18-Jul-2020 03:15 97K 
[   ]swri_math_util.tag18-Jul-2020 03:15 51K 
[   ]swri_nodelet.tag18-Jul-2020 03:15 5.1K 
[   ]swri_opencv_util.tag18-Jul-2020 03:15 85K 
[   ]swri_prefix_tools.tag18-Jul-2020 03:15 360  
[   ]swri_roscpp.tag18-Jul-2020 03:15 169K 
[   ]swri_rospy.tag18-Jul-2020 03:15 4.7K 
[   ]swri_route_util.tag18-Jul-2020 03:15 64K 
[   ]swri_serial_util.tag18-Jul-2020 03:15 11K 
[   ]swri_string_util.tag18-Jul-2020 03:15 8.4K 
[   ]swri_system_util.tag18-Jul-2020 03:15 5.4K 
[   ]swri_transform_util.tag18-Jul-2020 03:15 89K 
[   ]swri_yaml_util.tag18-Jul-2020 03:15 14K 
[   ]rqt_multiplot.tag18-Jul-2020 03:26 532K 
[   ]velodyne.tag18-Jul-2020 03:33 78  
[   ]velodyne_driver.tag18-Jul-2020 03:33 25K 
[   ]velodyne_laserscan.tag18-Jul-2020 03:33 16K 
[   ]velodyne_msgs.tag18-Jul-2020 03:33 352  
[   ]velodyne_pointcloud.tag18-Jul-2020 03:33 95K 
[   ]dynamixel_sdk.tag18-Jul-2020 03:58 219K 
[   ]robot_localization.tag19-Jul-2020 04:02 167K 
[   ]aws_common.tag20-Jul-2020 03:25 91K 
[   ]jason_ros.tag20-Jul-2020 03:41 18K 
[   ]jason_ros_comm.tag20-Jul-2020 03:41 4.5K 
[   ]jason_ros_msgs.tag20-Jul-2020 03:41 78  
[   ]mpc_local_planner.tag21-Jul-2020 03:56 186K 
[   ]mpc_local_planner_examples.tag21-Jul-2020 03:56 78  
[   ]mpc_local_planner_msgs.tag21-Jul-2020 03:56 78  
[   ]joy.tag22-Jul-2020 03:07 17K 
[   ]joystick_drivers.tag22-Jul-2020 03:07 78  
[   ]ps3joy.tag22-Jul-2020 03:07 56K 
[   ]spacenav_node.tag22-Jul-2020 03:07 801  
[   ]wiimote.tag22-Jul-2020 03:07 149K 
[   ]sick_scan.tag22-Jul-2020 03:25 560K 
[   ]eigenpy.tag23-Jul-2020 03:11 297K 
[   ]rosflight.tag23-Jul-2020 03:19 1.8M 
[   ]rosflight_firmware.tag23-Jul-2020 03:19 16M 
[   ]rosflight_msgs.tag23-Jul-2020 03:19 78  
[   ]rosflight_pkgs.tag23-Jul-2020 03:19 78  
[   ]rosflight_sim.tag23-Jul-2020 03:19 81K 
[   ]rosflight_utils.tag23-Jul-2020 03:19 61K 
[   ]openhrp3.tag23-Jul-2020 03:25 4.8M 
[   ]warehouse_ros_mongo.tag23-Jul-2020 03:30 39K 
[   ]fcl.tag23-Jul-2020 04:00 3.8M 
[   ]rviz.tag24-Jul-2020 03:07 1.6M 
[   ]fetch_bringup.tag24-Jul-2020 03:15 22K 
[   ]fetch_drivers.tag24-Jul-2020 03:15 78  
[   ]freight_bringup.tag24-Jul-2020 03:15 78  
[   ]assimp_devel.tag24-Jul-2020 03:40 78  
[   ]bayesian_belief_networks.tag24-Jul-2020 03:40 3.4K 
[   ]collada_urdf_jsk_patch.tag24-Jul-2020 03:40 379  
[   ]dialogflow_task_executive.tag24-Jul-2020 03:40 24K 
[   ]downward.tag24-Jul-2020 03:40 3.2K 
[   ]ff.tag24-Jul-2020 03:40 78  
[   ]ffha.tag24-Jul-2020 03:40 78  
[   ]gdrive_ros.tag24-Jul-2020 03:40 6.2K 
[   ]jsk_3rdparty.tag24-Jul-2020 03:40 78  
[   ]julius.tag24-Jul-2020 03:40 78  
[   ]julius_ros.tag24-Jul-2020 03:40 36K 
[   ]laser_filters_jsk_patch.tag24-Jul-2020 03:40 3.2K 
[   ]libcmt.tag24-Jul-2020 03:40 78  
[   ]libsiftfast.tag24-Jul-2020 03:40 78  
[   ]lpg_planner.tag24-Jul-2020 03:40 78  
[   ]mini_maxwell.tag24-Jul-2020 03:40 110K 
[   ]nlopt.tag24-Jul-2020 03:40 357  
[   ]opt_camera.tag24-Jul-2020 03:40 45K 
[   ]pgm_learner.tag24-Jul-2020 03:40 34K 
[   ]respeaker_ros.tag24-Jul-2020 03:40 25K 
[   ]ros_speech_recognition.tag24-Jul-2020 03:40 21K 
[   ]rospatlite.tag24-Jul-2020 03:40 21K 
[   ]rosping.tag24-Jul-2020 03:40 21K 
[   ]rostwitter.tag24-Jul-2020 03:40 5.7K 
[   ]sesame_ros.tag24-Jul-2020 03:40 8.6K 
[   ]slic.tag24-Jul-2020 03:40 78  
[   ]voice_text.tag24-Jul-2020 03:40 6.9K 
[   ]dynamic-graph.tag25-Jul-2020 03:05 539K 
[   ]amcl.tag25-Jul-2020 03:13 122K 
[   ]base_local_planner.tag25-Jul-2020 03:13 221K 
[   ]carrot_planner.tag25-Jul-2020 03:13 4.4K 
[   ]clear_costmap_recovery.tag25-Jul-2020 03:13 8.6K 
[   ]costmap_2d.tag25-Jul-2020 03:13 185K 
[   ]dwa_local_planner.tag25-Jul-2020 03:13 20K 
[   ]fake_localization.tag25-Jul-2020 03:13 9.3K 
[   ]global_planner.tag25-Jul-2020 03:13 58K 
[   ]map_server.tag25-Jul-2020 03:13 20K 
[   ]move_base.tag25-Jul-2020 03:13 29K 
[   ]move_slow_and_clear.tag25-Jul-2020 03:13 8.5K 
[   ]nav_core.tag25-Jul-2020 03:13 8.1K 
[   ]navfn.tag25-Jul-2020 03:13 43K 
[   ]navigation.tag25-Jul-2020 03:13 78  
[   ]rotate_recovery.tag25-Jul-2020 03:13 4.8K 
[   ]voxel_grid.tag25-Jul-2020 03:13 21K 
[   ]rosmon.tag25-Jul-2020 03:16 78  
[   ]rosmon_core.tag25-Jul-2020 03:16 244K 
[   ]rosmon_msgs.tag25-Jul-2020 03:16 78  
[   ]rqt_rosmon.tag25-Jul-2020 03:16 23K 
[   ]generic_control_toolbox.tag25-Jul-2020 03:56 92K 
[   ]pilz_extensions.tag26-Jul-2020 03:26 7.9K 
[   ]pilz_industrial_motion.tag26-Jul-2020 03:26 78  
[   ]pilz_industrial_motion_testutils.tag26-Jul-2020 03:26 150K 
[   ]pilz_msgs.tag26-Jul-2020 03:26 78  
[   ]pilz_store_positions.tag26-Jul-2020 03:26 17K 
[   ]pilz_trajectory_generation.tag26-Jul-2020 03:26 211K 
[   ]omnibase_control.tag27-Jul-2020 03:19 9.4K 
[   ]omnibase_description.tag27-Jul-2020 03:19 78  
[   ]omnibase_gazebo.tag27-Jul-2020 03:19 78  
[   ]cpp_common.tag27-Jul-2020 03:43 19K 
[   ]roscpp_core.tag27-Jul-2020 03:43 78  
[   ]roscpp_serialization.tag27-Jul-2020 03:43 51K 
[   ]roscpp_traits.tag27-Jul-2020 03:43 45K 
[   ]rostime.tag27-Jul-2020 03:43 93K 
[   ]qt_dotgraph.tag27-Jul-2020 03:44 39K 
[   ]qt_gui.tag27-Jul-2020 03:44 205K 
[   ]qt_gui_app.tag27-Jul-2020 03:44 1.1K 
[   ]qt_gui_core.tag27-Jul-2020 03:44 78  
[   ]qt_gui_cpp.tag27-Jul-2020 03:44 56K 
[   ]qt_gui_py_common.tag27-Jul-2020 03:44 21K 
[   ]jackal_control.tag28-Jul-2020 03:35 78  
[   ]jackal_description.tag28-Jul-2020 03:35 78  
[   ]jackal_msgs.tag28-Jul-2020 03:35 78  
[   ]jackal_navigation.tag28-Jul-2020 03:35 78  
[   ]psen_scan.tag01-Aug-2020 05:31 184K 
[   ]code_coverage.tag01-Aug-2020 05:32 78  
[   ]fanuc_experimental.tag01-Aug-2020 05:33 78  
[   ]fanuc_lrmate200id7l_moveit_config.tag01-Aug-2020 05:33 78  
[   ]fanuc_lrmate200id_moveit_config.tag01-Aug-2020 05:33 78  
[   ]fanuc_lrmate200id_moveit_plugins.tag01-Aug-2020 05:33 256K 
[   ]fanuc_lrmate200id_support.tag01-Aug-2020 05:33 78  
[   ]fanuc_r2000ib_support.tag01-Aug-2020 05:33 78  
[   ]pcl_conversions.tag01-Aug-2020 05:33 48K 
[   ]pcl_ros.tag01-Aug-2020 05:33 269K 
[   ]perception_pcl.tag01-Aug-2020 05:33 78  
[   ]novatel_oem7_driver.tag01-Aug-2020 05:33 179K 
[   ]novatel_oem7_msgs.tag01-Aug-2020 05:33 78  
[   ]message_filters.tag01-Aug-2020 05:37 300K 
[   ]ros_comm.tag01-Aug-2020 05:37 78  
[   ]rosbag.tag01-Aug-2020 05:37 56K 
[   ]rosbag_storage.tag01-Aug-2020 05:37 168K 
[   ]roscpp.tag01-Aug-2020 05:37 740K 
[   ]roslz4.tag01-Aug-2020 05:37 47K 
[   ]rosout.tag01-Aug-2020 05:37 3.7K 
[   ]test_rosbag.tag01-Aug-2020 05:37 22K 
[   ]test_rosbag_storage.tag01-Aug-2020 05:37 9.4K 
[   ]test_roscpp.tag01-Aug-2020 05:37 321K 
[   ]test_rosgraph.tag01-Aug-2020 05:37 7.3K 
[   ]test_roslaunch.tag01-Aug-2020 05:37 10K 
[   ]test_roslib_comm.tag01-Aug-2020 05:37 13K 
[   ]test_rosmaster.tag01-Aug-2020 05:37 84K 
[   ]test_rosparam.tag01-Aug-2020 05:37 14K 
[   ]test_rospy.tag01-Aug-2020 05:37 175K 
[   ]test_rosservice.tag01-Aug-2020 05:37 17K 
[   ]test_rostest.tag01-Aug-2020 05:37 854  
[   ]test_rostopic.tag01-Aug-2020 05:37 2.1K 
[   ]topic_tools.tag01-Aug-2020 05:37 74K 
[   ]xmlrpcpp.tag01-Aug-2020 05:37 286K 
[   ]dynamic-graph-python.tag01-Aug-2020 05:41 145K 
[   ]webots_ros.tag01-Aug-2020 05:43 79K 
[   ]mapviz.tag01-Aug-2020 05:47 120K 
[   ]mapviz_plugins.tag01-Aug-2020 05:47 368K 
[   ]multires_image.tag01-Aug-2020 05:47 72K 
[   ]tile_map.tag01-Aug-2020 05:47 60K 
[   ]grid_map.tag02-Aug-2020 03:25 78  
[   ]grid_map_core.tag02-Aug-2020 03:25 225K 
[   ]grid_map_costmap_2d.tag02-Aug-2020 03:25 27K 
[   ]grid_map_cv.tag02-Aug-2020 03:25 11K 
[   ]grid_map_demos.tag02-Aug-2020 03:25 56K 
[   ]grid_map_filters.tag02-Aug-2020 03:25 98K 
[   ]grid_map_loader.tag02-Aug-2020 03:25 4.9K 
[   ]grid_map_msgs.tag02-Aug-2020 03:25 78  
[   ]grid_map_octomap.tag02-Aug-2020 03:25 3.8K 
[   ]grid_map_pcl.tag02-Aug-2020 03:25 77K 
[   ]grid_map_ros.tag02-Aug-2020 03:25 27K 
[   ]grid_map_rviz_plugin.tag02-Aug-2020 03:25 19K 
[   ]grid_map_sdf.tag02-Aug-2020 03:25 38K 
[   ]grid_map_visualization.tag02-Aug-2020 03:25 51K 
[   ]warthog_control.tag02-Aug-2020 03:28 78  
[   ]warthog_description.tag02-Aug-2020 03:28 78  
[   ]warthog_msgs.tag02-Aug-2020 03:28 78  
[   ]dataspeed_pds.tag02-Aug-2020 03:34 78  
[   ]dataspeed_pds_can.tag02-Aug-2020 03:34 51K 
[   ]dataspeed_pds_lcm.tag02-Aug-2020 03:34 16K 
[   ]dataspeed_pds_msgs.tag02-Aug-2020 03:34 78  
[   ]dataspeed_pds_rqt.tag02-Aug-2020 03:34 13K 
[   ]dataspeed_pds_scripts.tag02-Aug-2020 03:34 78  
[   ]file_uploader_msgs.tag02-Aug-2020 03:58 78  
[   ]recorder_msgs.tag02-Aug-2020 03:58 78  
[   ]rosbag_cloud_recorders.tag02-Aug-2020 03:58 152K 
[   ]rosbag_uploader_ros1_integration_tests.tag02-Aug-2020 03:58 52K 
[   ]s3_common.tag02-Aug-2020 03:58 30K 
[   ]s3_file_uploader.tag02-Aug-2020 03:58 26K 
[   ]rr_control_input_manager.tag03-Aug-2020 03:15 50K 
[   ]rr_openrover_description.tag03-Aug-2020 03:15 78  
[   ]rr_openrover_driver.tag03-Aug-2020 03:15 80K 
[   ]rr_openrover_driver_msgs.tag03-Aug-2020 03:15 78  
[   ]rr_openrover_simulation.tag03-Aug-2020 03:15 78  
[   ]rr_openrover_stack.tag03-Aug-2020 03:15 78  
[   ]rr_rover_zero_driver.tag03-Aug-2020 03:15 91K 
[   ]lanelet2.tag03-Aug-2020 03:21 78  
[   ]lanelet2_core.tag03-Aug-2020 03:21 1.4M 
[   ]lanelet2_examples.tag03-Aug-2020 03:21 16K 
[   ]lanelet2_io.tag03-Aug-2020 03:21 140K 
[   ]lanelet2_maps.tag03-Aug-2020 03:21 78  
[   ]lanelet2_projection.tag03-Aug-2020 03:21 14K 
[   ]lanelet2_python.tag03-Aug-2020 03:21 68K 
[   ]lanelet2_routing.tag03-Aug-2020 03:21 336K 
[   ]lanelet2_traffic_rules.tag03-Aug-2020 03:21 87K 
[   ]lanelet2_validation.tag03-Aug-2020 03:21 59K 
[   ]simple_qt_gui.tag03-Aug-2020 03:38 2.3K 
[   ]optris_drivers.tag03-Aug-2020 03:39 16K 
[   ]nerian_stereo.tag03-Aug-2020 03:46 32K 
[   ]costmap_cspace.tag03-Aug-2020 03:47 90K 
[   ]joystick_interrupt.tag03-Aug-2020 03:47 19K 
[   ]map_organizer.tag03-Aug-2020 03:47 15K 
[   ]neonavigation.tag03-Aug-2020 03:47 78  
[   ]neonavigation_common.tag03-Aug-2020 03:47 15K 
[   ]neonavigation_launch.tag03-Aug-2020 03:47 78  
[   ]obj_to_pointcloud.tag03-Aug-2020 03:47 7.7K 
[   ]planner_cspace.tag03-Aug-2020 03:47 346K 
[   ]safety_limiter.tag03-Aug-2020 03:47 36K 
[   ]track_odometry.tag03-Aug-2020 03:47 31K 
[   ]trajectory_tracker.tag03-Aug-2020 03:47 68K 
[   ]audio_capture.tag03-Aug-2020 03:48 7.5K 
[   ]audio_common.tag03-Aug-2020 03:48 78  
[   ]audio_common_msgs.tag03-Aug-2020 03:48 425  
[   ]audio_play.tag03-Aug-2020 03:48 5.3K 
[   ]sound_play.tag03-Aug-2020 03:48 60K 
[   ]ypspur.tag03-Aug-2020 03:50 387K 
[   ]slam_toolbox.tag03-Aug-2020 03:52 744K 
[   ]slam_toolbox_msgs.tag03-Aug-2020 03:52 78  
[   ]rc_hand_eye_calibration_client.tag03-Aug-2020 04:09 39K 
[   ]rc_pick_client.tag03-Aug-2020 04:09 69K 
[   ]rc_roi_manager_gui.tag03-Aug-2020 04:09 21K 
[   ]rc_silhouettematch_client.tag03-Aug-2020 04:09 44K 
[   ]rc_tagdetect_client.tag03-Aug-2020 04:09 3.9M 
[   ]rc_visard.tag03-Aug-2020 04:09 78  
[   ]rc_visard_description.tag03-Aug-2020 04:09 376  
[   ]rc_visard_driver.tag03-Aug-2020 04:09 98K 
[   ]libmavconn.tag04-Aug-2020 03:16 122K 
[   ]mavros.tag04-Aug-2020 03:16 793K 
[   ]mavros_extras.tag04-Aug-2020 03:16 198K 
[   ]mavros_msgs.tag04-Aug-2020 03:16 2.0K 
[   ]test_mavros.tag04-Aug-2020 03:16 44K 
[   ]moveit_visual_tools.tag04-Aug-2020 03:17 75K 
[   ]gencpp.tag04-Aug-2020 03:31 7.9K 
[   ]fetch_calibration.tag04-Aug-2020 03:41 3.2K 
[   ]fetch_depth_layer.tag04-Aug-2020 03:41 8.8K 
[   ]fetch_description.tag04-Aug-2020 03:41 78  
[   ]fetch_ikfast_plugin.tag04-Aug-2020 03:41 145K 
[   ]fetch_maps.tag04-Aug-2020 03:41 78  
[   ]fetch_moveit_config.tag04-Aug-2020 03:41 78  
[   ]fetch_navigation.tag04-Aug-2020 03:41 4.0K 
[   ]fetch_ros.tag04-Aug-2020 03:41 78  
[   ]fetch_teleop.tag04-Aug-2020 03:41 51K 
[   ]soem.tag04-Aug-2020 03:43 898K 
[   ]gtsam.tag04-Aug-2020 03:47 50M 
[   ]audibot.tag05-Aug-2020 03:07 78  
[   ]audibot_description.tag05-Aug-2020 03:07 78  
[   ]audibot_gazebo.tag05-Aug-2020 03:07 32K 
[   ]neonavigation_rviz_plugins.tag05-Aug-2020 03:19 78  
[   ]trajectory_tracker_rviz_plugins.tag05-Aug-2020 03:19 20K 
[   ]mcl_3dl_msgs.tag05-Aug-2020 03:20 78  
[   ]keypress_monitor.tag05-Aug-2020 03:33 6.2K 
[   ]crane_x7.tag05-Aug-2020 03:42 78  
[   ]crane_x7_bringup.tag05-Aug-2020 03:42 78  
[   ]crane_x7_control.tag05-Aug-2020 03:42 95K 
[   ]crane_x7_description.tag05-Aug-2020 03:42 78  
[   ]crane_x7_examples.tag05-Aug-2020 03:42 43K 
[   ]crane_x7_gazebo.tag05-Aug-2020 03:42 78  
[   ]crane_x7_moveit_config.tag05-Aug-2020 03:42 78  
[   ]crane_x7_msgs.tag05-Aug-2020 03:42 78  
[   ]hokuyo3d.tag05-Aug-2020 03:57 63K 
[   ]realsense2_camera.tag06-Aug-2020 03:12 146K 
[   ]realsense2_description.tag06-Aug-2020 03:12 2.3K 
[   ]topics_rviz_plugin.tag06-Aug-2020 03:15 16K 
[   ]multisense.tag06-Aug-2020 03:58 78  
[   ]multisense_bringup.tag06-Aug-2020 03:58 363  
[   ]multisense_cal_check.tag06-Aug-2020 03:58 11K 
[   ]multisense_description.tag06-Aug-2020 03:58 78  
[   ]multisense_lib.tag06-Aug-2020 03:58 582K 
[   ]multisense_ros.tag06-Aug-2020 03:58 90K 
[   ]velodyne_description.tag06-Aug-2020 03:59 78  
[   ]velodyne_gazebo_plugins.tag06-Aug-2020 03:59 8.0K 
[   ]velodyne_simulator.tag06-Aug-2020 03:59 78  
[   ]mcl_3dl.tag07-Aug-2020 03:09 219K 
[   ]pilz_control.tag07-Aug-2020 03:14 53K 
[   ]pilz_robots.tag07-Aug-2020 03:14 78  
[   ]pilz_status_indicator_rqt.tag07-Aug-2020 03:14 20K 
[   ]pilz_testutils.tag07-Aug-2020 03:14 25K 
[   ]pilz_utils.tag07-Aug-2020 03:14 5.4K 
[   ]prbt_gazebo.tag07-Aug-2020 03:14 2.3K 
[   ]prbt_hardware_support.tag07-Aug-2020 03:14 438K 
[   ]prbt_ikfast_manipulator_plugin.tag07-Aug-2020 03:14 145K 
[   ]prbt_moveit_config.tag07-Aug-2020 03:14 78  
[   ]prbt_support.tag07-Aug-2020 03:14 35K 
[   ]inertial_sense.tag07-Aug-2020 03:20 26M 
[   ]ros_tutorials.tag07-Aug-2020 03:30 78  
[   ]roscpp_tutorials.tag07-Aug-2020 03:30 20K 
[   ]rospy_tutorials.tag07-Aug-2020 03:30 46K 
[   ]turtlesim.tag07-Aug-2020 03:30 38K 
[   ]costmap_cspace_msgs.tag07-Aug-2020 03:30 78  
[   ]map_organizer_msgs.tag07-Aug-2020 03:30 78  
[   ]neonavigation_msgs.tag07-Aug-2020 03:30 78  
[   ]planner_cspace_msgs.tag07-Aug-2020 03:30 78  
[   ]safety_limiter_msgs.tag07-Aug-2020 03:30 78  
[   ]trajectory_tracker_msgs.tag07-Aug-2020 03:30 2.8K 
[   ]dbw_fca.tag07-Aug-2020 03:36 78  
[   ]dbw_fca_can.tag07-Aug-2020 03:36 232K 
[   ]dbw_fca_description.tag07-Aug-2020 03:36 78  
[   ]dbw_fca_joystick_demo.tag07-Aug-2020 03:36 22K 
[   ]dbw_fca_msgs.tag07-Aug-2020 03:36 78  
[   ]warthog_gazebo.tag07-Aug-2020 03:38 5.1K 
[   ]warthog_simulator.tag07-Aug-2020 03:38 78  
[   ]controller_stopper.tag07-Aug-2020 03:41 5.0K 
[   ]ur_calibration.tag07-Aug-2020 03:41 16K 
[   ]ur_controllers.tag07-Aug-2020 03:41 24K 
[   ]ur_dashboard_msgs.tag07-Aug-2020 03:41 78  
[   ]ur_robot_driver.tag07-Aug-2020 03:41 422K 
[   ]rosconsole.tag07-Aug-2020 03:52 147K 
[   ]dbw_mkz.tag07-Aug-2020 03:55 78  
[   ]dbw_mkz_can.tag07-Aug-2020 03:55 225K 
[   ]dbw_mkz_description.tag07-Aug-2020 03:55 78  
[   ]dbw_mkz_joystick_demo.tag07-Aug-2020 03:55 20K 
[   ]dbw_mkz_msgs.tag07-Aug-2020 03:55 78  
[   ]ros_control_boilerplate.tag07-Aug-2020 03:57 65K 
[   ]jackal_gazebo.tag07-Aug-2020 04:00 78  
[   ]jackal_simulator.tag07-Aug-2020 04:00 78  
[   ]mvsim.tag07-Aug-2020 04:03 927K 
[   ]plotjuggler.tag07-Aug-2020 04:08 5.8M 
[   ]open_karto.tag08-Aug-2020 06:47 389K 
[   ]oxford_gps_eth.tag08-Aug-2020 06:48 53K 
[   ]rqt_plot.tag08-Aug-2020 06:48 62K 
[   ]pinocchio.tag08-Aug-2020 06:49 4.2M 
[   ]mecanum_gazebo_plugin.tag08-Aug-2020 06:51 3.6K 
[   ]ridgeback_gazebo.tag08-Aug-2020 06:51 78  
[   ]ridgeback_gazebo_plugins.tag08-Aug-2020 06:51 13K 
[   ]ridgeback_simulator.tag08-Aug-2020 06:51 78  
[   ]husky_base.tag08-Aug-2020 06:55 358K 
[   ]husky_bringup.tag08-Aug-2020 06:55 78  
[   ]husky_control.tag08-Aug-2020 06:55 78  
[   ]husky_description.tag08-Aug-2020 06:55 78  
[   ]husky_desktop.tag08-Aug-2020 06:55 78  
[   ]husky_gazebo.tag08-Aug-2020 06:55 78  
[   ]husky_msgs.tag08-Aug-2020 06:55 78  
[   ]husky_navigation.tag08-Aug-2020 06:55 78  
[   ]husky_robot.tag08-Aug-2020 06:55 78  
[   ]husky_simulator.tag08-Aug-2020 06:55 78  
[   ]husky_viz.tag08-Aug-2020 06:55 78